FW4770 Weather Reports


time (UTC)temp
F
wind
direction
speed
knots
gust
knots
rain 1hr
in
rain 24hr
in
rain mn
in
humidity
%
barometer
mb
20260507211021 57 12 7.0 12.2 0.00 0.00 0.00 34 1010.6
20260507210906 57 19 4.3 14.8 0.00 0.00 0.00 37 1010.6
20260507210829 57 293 5.2 14.8 0.00 0.00 0.00 36 1010.7
20260507210753 57 311 6.1 14.8 0.00 0.00 0.00 35 1010.7
20260507210633 57 276 7.0 14.8 0.00 0.00 0.00 33 1010.7
20260507210509 57 319 8.7 14.8 0.00 0.00 0.00 36 1010.7
20260507210411 57 289 7.0 14.8 0.00 0.00 0.00 36 1010.7
20260507210317 57 278 5.2 14.8 0.00 0.00 0.00 36 1010.7
20260507210220 57 302 6.1 14.8 0.00 0.00 0.00 36 1010.7
20260507210107 57 355 7.8 14.8 0.00 0.00 0.00 34 1010.8
20260507210009 56 340 7.8 13.9 0.00 0.00 0.00 36 1010.8
20260507205913 56 294 9.6 14.8 0.00 0.00 0.00 35 1010.8
20260507205818 56 288 8.7 14.8 0.00 0.00 0.00 35 1010.9
20260507205720 56 317 7.8 16.5 0.00 0.00 0.00 35 1010.8
20260507205608 57 312 8.7 16.5 0.00 0.00 0.00 34 1010.8
20260507205511 57 336 7.8 16.5 0.00 0.00 0.00 34 1010.7
20260507205414 57 304 7.8 16.5 0.00 0.00 0.00 38 1010.8
20260507205314 57 323 9.6 16.5 0.00 0.00 0.00 34 1010.7
20260507205217 57 319 11.3 16.5 0.00 0.00 0.00 32 1010.8
20260507205116 57 303 11.3 16.5 0.00 0.00 0.00 33 1010.8
20260507205040 57 324 10.4 16.5 0.00 0.00 0.00 34 1010.8
20260507204942 57 321 11.3 16.5 0.00 0.00 0.00 36 1010.9
20260507204827 57 327 11.3 16.5 0.00 0.00 0.00 37 1010.8
20260507204731 57 290 10.4 16.5 0.00 0.00 0.00 34 1010.7
20260507204607 57 323 12.2 16.5 0.00 0.00 0.00 34 1010.8
20260507204532 57 313 12.2 16.5 0.00 0.00 0.00 34 1010.7
20260507204434 57 320 11.3 16.5 0.00 0.00 0.00 34 1010.9
20260507204317 57 275 8.7 14.8 0.00 0.00 0.00 35 1010.7
20260507204220 57 311 5.2 12.2 0.00 0.00 0.00 34 1010.8
20260507204108 57 211 3.5 12.2 0.00 0.00 0.00 33 1010.9
20260507204011 57 325 5.2 12.2 0.00 0.00 0.00 34 1010.9
20260507203914 57 350 8.7 12.2 0.00 0.00 0.00 34 1010.9
20260507203817 57 299 7.8 12.2 0.00 0.00 0.00 36 1010.9
20260507203741 57 321 4.3 11.3 0.00 0.00 0.00 35 1010.9
20260507203622 57 15 3.5 11.3 0.00 0.00 0.00 35 1010.9
20260507203509 56 355 4.3 12.2 0.00 0.00 0.00 35 1011.0
20260507203433 56 12 5.2 12.2 0.00 0.00 0.00 35 1011.0
20260507203308 56 360 4.3 14.8 0.00 0.00 0.00 35 1011.0
20260507203211 56 360 4.3 14.8 0.00 0.00 0.00 35 1011.0
20260507203114 56 23 5.2 14.8 0.00 0.00 0.00 34 1011.0
20260507203018 56 342 6.1 14.8 0.00 0.00 0.00 36 1011.0
20260507202942 56 355 7.8 15.6 0.00 0.00 0.00 35 1011.1
20260507202843 56 325 8.7 15.6 0.00 0.00 0.00 33 1011.1
20260507202706 56 300 9.6 15.6 0.00 0.00 0.00 35 1011.0
20260507202609 56 317 8.7 15.6 0.00 0.00 0.00 35 1011.0
20260507202532 56 298 8.7 15.6 0.00 0.00 0.00 38 1011.0
20260507202409 56 320 9.6 15.6 0.00 0.00 0.00 35 1011.0
20260507202332 56 286 10.4 15.6 0.00 0.00 0.00 35 1011.0
20260507202208 57 301 9.6 15.6 0.00 0.00 0.00 40 1011.1
20260507202137 56 287 7.0 13.0 0.00 0.00 0.00 36 1011.0
20260507202020 56 343 5.2 13.0 0.00 0.00 0.00 36 1011.1
20260507201922 56 305 3.5 13.0 0.00 0.00 0.00 37 1011.1
20260507201845 56 346 3.5 13.0 0.00 0.00 0.00 34 1011.1
20260507201708 56 271 5.2 13.0 0.00 0.00 0.00 35 1011.1
20260507201612 56 279 5.2 13.0 0.00 0.00 0.00 35 1011.1
20260507201514 56 254 6.1 13.0 0.00 0.00 0.00 37 1011.1
20260507201443 56 233 9.6 13.0 0.00 0.00 0.00 33 1011.2
20260507201322 56 265 10.4 13.0 0.00 0.00 0.00 36 1011.2
20260507201225 56 279 8.7 13.0 0.00 0.00 0.00 35 1011.1
20260507201128 57 277 7.8 11.3 0.00 0.00 0.00 34 1011.2
20260507201052 57 271 7.0 11.3 0.00 0.00 0.00 36 1011.2
20260507200907 57 306 4.3 10.4 0.00 0.00 0.00 34 1011.3
20260507200810 56 282 3.5 10.4 0.00 0.00 0.00 39 1011.3
20260507200717 56 360 4.3 10.4 0.00 0.00 0.00 37 1011.3
20260507200619 56 316 6.1 10.4 0.00 0.00 0.00 36 1011.3
20260507200543 56 5 7.0 10.4 0.00 0.00 0.00 34 1011.3
20260507200425 56 10 5.2 10.4 0.00 0.00 0.00 35 1011.4
20260507200330 56 11 5.2 10.4 0.00 0.00 0.00 34 1011.3
20260507200253 56 49 5.2 10.4 0.00 0.00 0.00 35 1011.4
20260507200109 56 47 3.5 8.7 0.00 0.00 0.00 39 1011.4
20260507200017 56 355 3.5 8.7 0.00 0.00 0.00 33 1011.4
20260507195917 56 325 6.1 8.7 0.00 0.00 0.00 34 1011.3
20260507195842 56 321 7.0 8.7 0.00 0.00 0.00 35 1011.4
20260507195724 56 313 5.2 8.7 0.00 0.00 0.00 36 1011.4
20260507195608 56 5 3.5 10.4 0.00 0.00 0.00 35 1011.4
20260507195512 56 17 4.3 12.2 0.00 0.00 0.00 38 1011.4
20260507195420 56 346 4.3 12.2 0.00 0.00 0.00 37 1011.4
20260507195324 56 360 6.1 12.2 0.00 0.00 0.00 37 1011.5
20260507195229 56 288 6.1 12.2 0.00 0.00 0.00 37 1011.4
20260507195153 56 262 7.0 12.2 0.00 0.00 0.00 35 1011.4
20260507195009 56 295 5.2 12.2 0.00 0.00 0.00 37 1011.5
20260507194913 56 282 6.1 12.2 0.00 0.00 0.00 38 1011.4
20260507194817 56 332 7.8 12.2 0.00 0.00 0.00 36 1011.5
20260507194724 56 355 8.7 12.2 0.00 0.00 0.00 37 1011.7
20260507194608 56 300 7.0 12.2 0.00 0.00 0.00 35 1011.4
20260507194512 56 326 7.8 12.2 0.00 0.00 0.00 35 1011.6
20260507194437 56 326 8.7 12.2 0.00 0.00 0.00 35 1011.6
20260507194319 56 310 7.8 12.2 0.00 0.00 0.00 37 1011.5
20260507194222 55 305 6.1 12.2 0.00 0.00 0.00 39 1011.6
20260507194111 55 311 5.2 10.4 0.00 0.00 0.00 36 1011.5
20260507194034 55 350 5.2 10.4 0.00 0.00 0.00 37 1011.6
20260507193915 55 342 5.2 10.4 0.00 0.00 0.00 37 1011.6
20260507193819 55 5 3.5 10.4 0.00 0.00 0.00 35 1011.6
20260507193720 55 284 4.3 10.4 0.00 0.00 0.00 35 1011.4
20260507193622 55 79 6.1 10.4 0.00 0.00 0.00 39 1011.5
20260507193509 54 23 5.2 10.4 0.00 0.00 0.00 39 1011.7
20260507193413 54 13 3.5 10.4 0.00 0.00 0.00 37 1011.5
20260507193317 54 222 1.7 7.8 0.00 0.00 0.00 37 1011.6
20260507193221 54 244 0.9 7.8 0.00 0.00 0.00 39 1011.5
20260507193145 54 264 0.9 7.8 0.00 0.00 0.00 36 1011.5
20260507193046 54 264 1.7 8.7 0.00 0.00 0.00 37 1011.5
20260507192926 53 268 4.3 12.2 0.00 0.00 0.00 36 1011.6
20260507192811 53 292 6.1 12.2 0.00 0.00 0.00 36 1011.6
20260507192712 53 303 4.3 12.2 0.00 0.00 0.00 36 1011.6
20260507192634 53 286 3.5 13.0 0.00 0.00 0.00 36 1011.7
20260507192535 53 306 4.3 14.8 0.00 0.00 0.00 35 1011.6
20260507192415 53 297 6.1 14.8 0.00 0.00 0.00 36 1011.7
20260507192314 54 298 7.0 14.8 0.00 0.00 0.00 35 1011.8
20260507192238 54 315 8.7 14.8 0.00 0.00 0.00 35 1011.7
20260507192118 54 310 8.7 14.8 0.00 0.00 0.00 36 1011.7
20260507192025 55 313 7.0 14.8 0.00 0.00 0.00 37 1011.7
20260507191929 55 306 7.8 14.8 0.00 0.00 0.00 37 1011.7
20260507191813 55 311 7.8 14.8 0.00 0.00 0.00 36 1011.7
20260507191717 55 303 7.8 14.8 0.00 0.00 0.00 39 1011.7
20260507191621 55 289 9.6 14.8 0.00 0.00 0.00 37 1011.7
20260507191525 55 302 9.6 14.8 0.00 0.00 0.00 40 1011.6
20260507191414 55 292 5.2 11.3 0.00 0.00 0.00 38 1011.7
20260507191318 55 267 4.3 8.7 0.00 0.00 0.00 37 1011.7
20260507191222 55 257 4.3 8.7 0.00 0.00 0.00 40 1011.6
20260507191106 55 300 2.6 9.6 0.00 0.00 0.00 43 1011.7
20260507191010 55 327 5.2 10.4 0.00 0.00 0.00 39 1011.7
20260507190935 55 340 7.0 11.3 0.00 0.00 0.00 38 1011.8
20260507190817 55 302 7.8 12.2 0.00 0.00 0.00 40 1011.8
20260507190705 55 295 5.2 12.2 0.00 0.00 0.00 36 1011.7
20260507190630 55 286 4.3 12.2 0.00 0.00 0.00 36 1011.7
20260507190507 55 333 5.2 12.2 0.00 0.00 0.00 36 1011.7
20260507190413 55 33 6.1 12.2 0.00 0.00 0.00 35 1011.8
20260507190317 55 9 7.0 12.2 0.00 0.00 0.00 37 1011.8
20260507190221 55 17 7.8 12.2 0.00 0.00 0.00 37 1011.7
20260507190110 55 331 7.8 13.0 0.00 0.00 0.00 37 1011.7
20260507190035 55 355 7.8 13.0 0.00 0.00 0.00 37 1011.7
20260507185957 55 342 4.3 13.0 0.00 0.00 0.00 37 1011.7
20260507185731 55 45 4.3 13.0 0.00 0.00 0.00 36 1011.7
20260507185635 55 360 5.2 13.0 0.00 0.00 0.00 37 1011.7
20260507185519 55 284 6.1 13.0 0.00 0.00 0.00 37 1011.7
20260507185422 55 267 7.8 13.0 0.00 0.00 0.00 37 1011.7
20260507185310 55 290 7.8 13.0 0.00 0.00 0.00 37 1011.7
20260507185213 55 24 5.2 11.3 0.00 0.00 0.00 37 1011.7
20260507185117 55 331 3.5 11.3 0.00 0.00 0.00 38 1011.6
20260507185022 55 9 2.6 13.9 0.00 0.00 0.00 37 1011.7
20260507184906 55 336 3.5 13.9 0.00 0.00 0.00 36 1011.8
20260507184810 55 314 5.2 13.9 0.00 0.00 0.00 37 1011.7
20260507184714 55 326 7.0 13.9 0.00 0.00 0.00 40 1011.7
20260507184622 55 288 7.0 13.9 0.00 0.00 0.00 42 1011.7
20260507184506 55 301 6.1 13.9 0.00 0.00 0.00 36 1011.7
20260507184411 55 335 7.8 13.9 0.00 0.00 0.00 37 1011.8
20260507184335 55 12 8.7 13.9 0.00 0.00 0.00 37 1011.8
20260507184218 54 336 8.7 13.9 0.00 0.00 0.00 39 1011.8
20260507184124 54 350 8.7 13.9 0.00 0.00 0.00 38 1012.0
20260507184012 54 321 7.8 14.8 0.00 0.00 0.00 39 1011.8
20260507183916 54 349 8.7 16.5 0.00 0.00 0.00 36 1011.9
20260507183818 54 323 7.8 16.5 0.00 0.00 0.00 39 1011.8
20260507183723 54 300 7.0 16.5 0.00 0.00 0.00 37 1011.9
20260507183646 54 11 7.8 16.5 0.00 0.00 0.00 38 1011.8
20260507183510 54 319 4.3 16.5 0.00 0.00 0.00 39 1011.7
20260507183418 54 32 3.5 16.5 0.00 0.00 0.00 43 1011.8
20260507183322 54 342 7.8 16.5 0.00 0.00 0.00 40 1011.8
20260507183207 54 292 12.2 16.5 0.00 0.00 0.00 39 1011.9
20260507183131 54 290 8.7 16.5 0.00 0.00 0.00 38 1011.8
20260507183014 54 296 4.3 11.3 0.00 0.00 0.00 37 1011.8
20260507182939 54 257 2.6 11.3 0.00 0.00 0.00 39 1011.9
20260507182822 54 40 2.6 11.3 0.00 0.00 0.00 43 1011.8
20260507182710 54 277 5.2 11.3 0.00 0.00 0.00 41 1011.9
20260507182615 54 270 6.1 11.3 0.00 0.00 0.00 39 1011.9
20260507182519 54 267 4.3 11.3 0.00 0.00 0.00 35 1011.9
20260507182421 54 298 4.3 11.3 0.00 0.00 0.00 37 1012.0
20260507182324 54 60 6.1 11.3 0.00 0.00 0.00 34 1011.9
20260507182228 54 17 7.0 11.3 0.00 0.00 0.00 38 1012.0
20260507182115 54 351 5.2 11.3 0.00 0.00 0.00 40 1012.0
20260507182018 54 355 3.5 11.3 0.00 0.00 0.00 41 1012.0
20260507181922 54 11 3.5 11.3 0.00 0.00 0.00 39 1012.0
20260507181806 54 37 7.0 11.3 0.00 0.00 0.00 39 1012.0
20260507181710 53 10 7.8 11.3 0.00 0.00 0.00 38 1012.1
20260507181614 53 349 7.0 11.3 0.00 0.00 0.00 39 1012.0
20260507181522 53 20 5.2 8.7 0.00 0.00 0.00 38 1012.1
20260507181406 53 342 4.3 8.7 0.00 0.00 0.00 41 1012.0
20260507181330 53 13 4.3 8.7 0.00 0.00 0.00 44 1012.0
20260507181207 53 337 4.3 8.7 0.00 0.00 0.00 41 1012.1
20260507181111 53 287 6.1 8.7 0.00 0.00 0.00 40 1012.1
20260507181018 53 307 5.2 8.7 0.00 0.00 0.00 41 1012.0
20260507180907 53 304 2.6 7.8 0.00 0.00 0.00 39 1012.0
20260507180831 53 5 4.3 9.6 0.00 0.00 0.00 39 1012.0
20260507180713 53 280 4.3 9.6 0.00 0.00 0.00 40 1012.1
20260507180617 53 301 3.5 9.6 0.00 0.00 0.00 41 1012.0
20260507180522 52 347 4.3 9.6 0.00 0.00 0.00 41 1012.0
20260507180407 52 355 5.2 9.6 0.00 0.00 0.00 42 1012.1
20260507180330 52 63 4.3 9.6 0.00 0.00 0.00 41 1012.1
20260507180217 52 63 4.3 13.0 0.00 0.00 0.00 41 1012.2
20260507180119 52 32 5.2 13.0 0.00 0.00 0.00 40 1012.1
20260507180020 52 59 5.2 13.0 0.00 0.00 0.00 38 1012.3
20260507175921 52 61 5.2 13.0 0.00 0.00 0.00 38 1012.3
20260507175822 52 27 5.2 13.0 0.00 0.00 0.00 39 1012.3
20260507175724 53 39 5.2 13.0 0.00 0.00 0.00 38 1012.3
20260507175630 53 57 7.0 13.0 0.00 0.00 0.00 38 1012.3
20260507175505 53 11 7.8 13.0 0.00 0.00 0.00 39 1012.4
20260507175410 53 14 7.0 13.0 0.00 0.00 0.00 40 1012.3
20260507175314 53 12 6.1 11.3 0.00 0.00 0.00 38 1012.4
20260507175218 53 345 7.8 11.3 0.00 0.00 0.00 40 1012.3
20260507175122 53 337 6.1 11.3 0.00 0.00 0.00 38 1012.4
20260507175011 53 340 2.6 11.3 0.00 0.00 0.00 39 1012.3
20260507174913 53 5 5.2 11.3 0.00 0.00 0.00 36 1012.3
20260507174815 53 360 7.8 11.3 0.00 0.00 0.00 38 1012.3
20260507174721 53 336 7.0 11.3 0.00 0.00 0.00 39 1012.5
20260507174626 53 13 5.2 10.4 0.00 0.00 0.00 40 1012.4
20260507174550 53 355 5.2 9.6 0.00 0.00 0.00 37 1012.4
20260507174415 53 25 4.3 9.6 0.00 0.00 0.00 40 1012.4
20260507174339 53 343 3.5 8.7 0.00 0.00 0.00 39 1012.4
20260507174224 53 355 3.5 8.7 0.00 0.00 0.00 38 1012.4
20260507174109 53 251 4.3 9.6 0.00 0.00 0.00 37 1012.3
20260507174030 53 276 4.3 9.6 0.00 0.00 0.00 40 1012.3
20260507173907 53 343 4.3 9.6 0.00 0.00 0.00 42 1012.4
20260507173810 53 355 3.5 9.6 0.00 0.00 0.00 39 1012.4
20260507173718 53 9 1.7 9.6 0.00 0.00 0.00 40 1012.4
20260507173620 53 278 3.5 9.6 0.00 0.00 0.00 44 1012.4
20260507173524 52 321 4.3 9.6 0.00 0.00 0.00 42 1012.4
20260507173428 52 5 5.2 9.6 0.00 0.00 0.00 42 1012.5
20260507173309 52 306 4.3 9.6 0.00 0.00 0.00 39 1012.5
20260507173213 52 57 5.2 8.7 0.00 0.00 0.00 39 1012.5
20260507173137 52 18 5.2 9.6 0.00 0.00 0.00 41 1012.5
20260507173023 52 11 4.3 10.4 0.00 0.00 0.00 43 1012.5
20260507172908 52 308 2.6 10.4 0.00 0.00 0.00 43 1012.5
20260507172811 52 17 2.6 10.4 0.00 0.00 0.00 42 1012.4
20260507172715 52 15 3.5 10.4 0.00 0.00 0.00 39 1012.5
20260507172637 52 38 4.3 10.4 0.00 0.00 0.00 38 1012.5
20260507172517 52 46 4.3 10.4 0.00 0.00 0.00 38 1012.6
20260507172417 52 36 5.2 10.4 0.00 0.00 0.00 39 1012.6
20260507172323 52 39 6.1 10.4 0.00 0.00 0.00 41 1012.6
20260507172207 51 344 7.0 10.4 0.00 0.00 0.00 41 1012.6
20260507172131 51 360 7.0 10.4 0.00 0.00 0.00 41 1012.6
20260507172007 51 360 5.2 10.4 0.00 0.00 0.00 44 1012.6
20260507171911 51 341 4.3 8.7 0.00 0.00 0.00 42 1012.5
20260507171816 51 21 4.3 8.7 0.00 0.00 0.00 42 1012.5
20260507171724 51 336 5.2 9.6 0.00 0.00 0.00 43 1012.5
20260507171648 51 54 5.2 9.6 0.00 0.00 0.00 40 1012.6
20260507171507 51 32 5.2 9.6 0.00 0.00 0.00 43 1012.6
20260507171432 51 69 3.5 9.6 0.00 0.00 0.00 41 1012.6
20260507171311 51 65 2.6 9.6 0.00 0.00 0.00 39 1012.5
20260507171235 51 121 4.3 10.4 0.00 0.00 0.00 38 1012.5
20260507171116 51 110 5.2 10.4 0.00 0.00 0.00 40 1012.5
20260507171022 51 88 6.1 10.4 0.00 0.00 0.00 42 1012.6
20260507170905 51 65 7.0 10.4 0.00 0.00 0.00 41 1012.7
20260507170829 51 71 6.1 10.4 0.00 0.00 0.00 39 1012.6
20260507170711 51 87 5.2 10.4 0.00 0.00 0.00 39 1012.6
20260507170612 52 77 4.3 10.4 0.00 0.00 0.00 39 1012.7
20260507170533 52 61 5.2 10.4 0.00 0.00 0.00 39 1012.7
20260507170413 52 58 5.2 10.4 0.00 0.00 0.00 39 1012.8
20260507170317 52 71 4.3 10.4 0.00 0.00 0.00 41 1012.7
20260507170222 52 36 5.2 10.4 0.00 0.00 0.00 40 1012.7
20260507170126 52 320 7.8 10.4 0.00 0.00 0.00 42 1012.7
20260507170008 52 22 6.1 10.4 0.00 0.00 0.00 43 1012.8
20260507165932 52 10 5.2 10.4 0.00 0.00 0.00 42 1012.7
20260507165807 52 335 4.3 7.8 0.00 0.00 0.00 43 1012.7
20260507165711 52 42 4.3 7.8 0.00 0.00 0.00 44 1012.8
20260507165620 52 9 3.5 7.8 0.00 0.00 0.00 43 1012.8
20260507165541 51 290 3.5 5.2 0.00 0.00 0.00 43 1012.8
20260507165424 51 16 2.6 4.3 0.00 0.00 0.00 44 1012.9
20260507165347 51 321 2.6 4.3 0.00 0.00 0.00 45 1012.7
20260507165251 51 5 2.6 6.1 0.00 0.00 0.00 43 1012.8
20260507165107 51 166 0.9 7.0 0.00 0.00 0.00 46 1012.8
20260507165011 51 166 0.9 7.0 0.00 0.00 0.00 45 1012.8
20260507164936 51 166 0.9 7.0 0.00 0.00 0.00 44 1012.8
20260507164822 51 166 0.9 7.0 0.00 0.00 0.00 45 1012.8
20260507164726 51 166 0.9 9.6 0.00 0.00 0.00 41 1012.8
20260507164627 51 142 2.6 9.6 0.00 0.00 0.00 40 1012.7
20260507164509 51 142 4.3 10.4 0.00 0.00 0.00 41 1012.8
20260507164433 51 121 3.5 10.4 0.00 0.00 0.00 41 1012.8
20260507164316 51 96 3.5 10.4 0.00 0.00 0.00 42 1013.0
20260507164240 51 67 4.3 10.4 0.00 0.00 0.00 44 1013.0
20260507164107 51 46 4.3 10.4 0.00 0.00 0.00 42 1013.1
20260507164010 51 355 4.3 10.4 0.00 0.00 0.00 43 1013.0
20260507163934 51 344 7.0 10.4 0.00 0.00 0.00 41 1013.0
20260507163817 51 342 7.8 10.4 0.00 0.00 0.00 40 1013.1
20260507163737 51 360 6.1 10.4 0.00 0.00 0.00 41 1013.1
20260507163621 51 360 2.6 9.6 0.00 0.00 0.00 43 1013.1
20260507163508 51 24 2.6 9.6 0.00 0.00 0.00 45 1013.0
20260507163412 50 14 4.3 10.4 0.00 0.00 0.00 41 1013.1
20260507163313 50 355 5.2 10.4 0.00 0.00 0.00 41 1013.1
20260507163215 50 45 7.0 10.4 0.00 0.00 0.00 41 1013.1
20260507163116 50 360 7.0 10.4 0.00 0.00 0.00 40 1013.1
20260507163017 50 360 5.2 10.4 0.00 0.00 0.00 41 1013.1
20260507162938 50 206 3.5 10.4 0.00 0.00 0.00 39 1013.1
20260507162824 51 12 4.3 10.4 0.00 0.00 0.00 40 1013.0
20260507162723 51 26 6.1 10.4 0.00 0.00 0.00 43 1013.3
20260507162627 51 335 6.1 10.4 0.00 0.00 0.00 41 1013.2
20260507162508 51 338 6.1 10.4 0.00 0.00 0.00 42 1013.2
20260507162413 51 332 6.1 10.4 0.00 0.00 0.00 44 1013.2
20260507162337 51 294 4.3 9.6 0.00 0.00 0.00 46 1013.2
20260507162220 50 355 5.2 7.8 0.00 0.00 0.00 44 1013.2
20260507162127 50 63 5.2 7.8 0.00 0.00 0.00 43 1013.2
20260507162011 50 51 3.5 7.8 0.00 0.00 0.00 45 1013.2
20260507161914 50 69 2.6 7.0 0.00 0.00 0.00 43 1013.2
20260507161839 50 25 4.3 7.0 0.00 0.00 0.00 42 1013.1
20260507161719 50 78 5.2 8.7 0.00 0.00 0.00 41 1013.2
20260507161642 50 79 3.5 9.6 0.00 0.00 0.00 43 1013.2
20260507161545 50 92 2.6 9.6 0.00 0.00 0.00 41 1013.2
20260507161411 50 64 2.6 9.6 0.00 0.00 0.00 44 1013.2
20260507161335 50 110 2.6 9.6 0.00 0.00 0.00 45 1013.2
20260507161239 50 71 2.6 9.6 0.00 0.00 0.00 45 1013.3
20260507161124 50 44 3.5 9.6 0.00 0.00 0.00 44 1013.2
20260507161029 50 30 5.2 9.6 0.00 0.00 0.00 40 1013.3
20260507160931 50 70 4.3 9.6 0.00 0.00 0.00 43 1013.2
20260507160808 50 69 3.5 8.7 0.00 0.00 0.00 42 1013.2
20260507160709 50 60 2.6 8.7 0.00 0.00 0.00 45 1013.2
20260507160617 50 76 2.6 8.7 0.00 0.00 0.00 43 1013.3
20260507160521 50 277 4.3 9.6 0.00 0.00 0.00 42 1013.2
20260507160426 50 30 5.2 9.6 0.00 0.00 0.00 48 1013.3
20260507160328 50 338 5.2 9.6 0.00 0.00 0.00 46 1013.2
20260507160211 50 325 6.1 11.3 0.00 0.00 0.00 45 1013.2
20260507160114 49 297 7.0 11.3 0.00 0.00 0.00 45 1013.2
20260507160022 49 280 6.1 11.3 0.00 0.00 0.00 44 1013.2
20260507155946 49 355 6.1 11.3 0.00 0.00 0.00 46 1013.1
20260507155828 49 304 5.2 11.3 0.00 0.00 0.00 43 1013.3
20260507155752 49 338 7.0 11.3 0.00 0.00 0.00 45 1013.3
20260507155608 49 331 7.0 11.3 0.00 0.00 0.00 45 1013.3
20260507155512 49 321 7.0 11.3 0.00 0.00 0.00 49 1013.2
20260507155416 49 305 6.1 11.3 0.00 0.00 0.00 46 1013.2
20260507155324 49 287 5.2 9.6 0.00 0.00 0.00 45 1013.2
20260507155207 49 298 4.3 8.7 0.00 0.00 0.00 45 1013.2
20260507155110 49 311 2.6 7.0 0.00 0.00 0.00 47 1013.2
20260507155014 49 329 2.6 7.8 0.00 0.00 0.00 49 1013.3
20260507154917 49 86 1.7 7.8 0.00 0.00 0.00 46 1013.3
20260507154821 49 57 2.6 7.8 0.00 0.00 0.00 46 1013.2
20260507154729 49 57 3.5 7.8 0.00 0.00 0.00 46 1013.3
20260507154606 49 65 4.3 7.8 0.00 0.00 0.00 45 1013.3
20260507154510 49 71 4.3 7.8 0.00 0.00 0.00 47 1013.3
20260507154433 49 69 3.5 7.8 0.00 0.00 0.00 48 1013.3
20260507154316 49 47 4.3 7.8 0.00 0.00 0.00 48 1013.2
20260507154239 49 360 3.5 7.8 0.00 0.00 0.00 49 1013.3
20260507154123 49 26 2.6 4.3 0.00 0.00 0.00 48 1013.3
20260507154011 48 325 2.6 4.3 0.00 0.00 0.00 49 1013.2
20260507153914 48 319 3.5 4.3 0.00 0.00 0.00 49 1013.3
20260507153818 48 5 3.5 4.3 0.00 0.00 0.00 48 1013.3
20260507153721 48 338 2.6 4.3 0.00 0.00 0.00 49 1013.3
20260507153605 48 327 1.7 4.3 0.00 0.00 0.00 48 1013.3
20260507153509 48 290 1.7 7.8 0.00 0.00 0.00 47 1013.3
20260507153417 48 338 2.6 7.8 0.00 0.00 0.00 48 1013.3
20260507153321 48 336 2.6 7.8 0.00 0.00 0.00 48 1013.3
20260507153225 48 344 2.6 7.8 0.00 0.00 0.00 49 1013.3
20260507153128 48 246 2.6 7.8 0.00 0.00 0.00 48 1013.3
20260507153012 48 247 1.7 8.7 0.00 0.00 0.00 51 1013.3
20260507152933 48 70 2.6 8.7 0.00 0.00 0.00 48 1013.3
20260507152817 48 70 3.5 10.4 0.00 0.00 0.00 48 1013.3
20260507152744 48 30 4.3 11.3 0.00 0.00 0.00 49 1013.4
20260507152608 48 331 3.5 11.3 0.00 0.00 0.00 50 1013.3
20260507152532 48 300 2.6 11.3 0.00 0.00 0.00 48 1013.4
20260507152414 48 279 4.3 11.3 0.00 0.00 0.00 47 1013.3
20260507152318 48 277 5.2 11.3 0.00 0.00 0.00 49 1013.3
20260507152241 48 275 5.2 11.3 0.00 0.00 0.00 50 1013.4
20260507152144 48 32 6.1 11.3 0.00 0.00 0.00 47 1013.4
20260507152010 48 19 5.2 11.3 0.00 0.00 0.00 48 1013.4
20260507151914 48 5 4.3 11.3 0.00 0.00 0.00 50 1013.4
20260507151818 47 30 5.2 9.6 0.00 0.00 0.00 49 1013.4
20260507151723 47 338 4.3 11.3 0.00 0.00 0.00 50 1013.3
20260507151608 47 19 3.5 11.3 0.00 0.00 0.00 49 1013.3
20260507151511 47 322 2.6 11.3 0.00 0.00 0.00 50 1013.3
20260507151434 47 289 3.5 11.3 0.00 0.00 0.00 49 1013.4
20260507151321 47 28 3.5 11.3 0.00 0.00 0.00 47 1013.4
20260507151206 47 338 2.6 11.3 0.00 0.00 0.00 51 1013.4
20260507151109 47 303 3.5 11.3 0.00 0.00 0.00 51 1013.4
20260507151014 47 325 6.1 11.3 0.00 0.00 0.00 49 1013.4
20260507150918 47 290 7.0 11.3 0.00 0.00 0.00 51 1013.4
20260507150841 47 294 3.5 9.6 0.00 0.00 0.00 50 1013.4
20260507150728 47 329 1.7 7.0 0.00 0.00 0.00 49 1013.4
20260507150630 47 288 0.9 7.0 0.00 0.00 0.00 49 1013.4
20260507150506 47 288 2.6 7.8 0.00 0.00 0.00 51 1013.4
20260507150410 47 292 4.3 7.8 0.00 0.00 0.00 51 1013.4
20260507150333 47 298 4.3 7.8 0.00 0.00 0.00 50 1013.5
20260507150236 47 325 2.6 7.8 0.00 0.00 0.00 51 1013.5
20260507150118 47 342 2.6 7.8 0.00 0.00 0.00 51 1013.4
20260507150006 47 285 4.3 8.7 0.00 0.00 0.00 49 1013.4
20260507145929 47 292 6.1 8.7 0.00 0.00 0.00 50 1013.4
20260507145812 47 298 6.1 8.7 0.00 0.00 0.00 51 1013.3
20260507145736 47 273 5.2 8.7 0.00 0.00 0.00 50 1013.4
20260507145620 47 313 4.3 8.7 0.00 0.00 0.00 52 1013.4
20260507145544 47 339 4.3 8.7 0.00 0.00 0.00 52 1013.4
20260507145407 47 9 6.1 8.7 0.00 0.00 0.00 50 1013.4
20260507145309 47 344 5.2 8.7 0.00 0.00 0.00 50 1013.4
20260507145217 47 294 4.3 8.7 0.00 0.00 0.00 50 1013.4
20260507145121 47 292 4.3 7.0 0.00 0.00 0.00 51 1013.5
20260507145024 47 360 4.3 7.0 0.00 0.00 0.00 52 1013.5
20260507144928 47 5 3.5 7.0 0.00 0.00 0.00 53 1013.5
20260507144805 47 44 1.7 7.0 0.00 0.00 0.00 53 1013.5
20260507144709 46 44 1.7 7.0 0.00 0.00 0.00 54 1013.5
20260507144618 46 71 1.7 7.0 0.00 0.00 0.00 54 1013.5
20260507144523 46 72 1.7 7.0 0.00 0.00 0.00 51 1013.5
20260507144407 46 70 1.7 7.0 0.00 0.00 0.00 53 1013.4
20260507144310 46 44 2.6 7.0 0.00 0.00 0.00 54 1013.5
20260507144214 46 40 3.5 7.0 0.00 0.00 0.00 51 1013.5
20260507144118 46 38 4.3 7.0 0.00 0.00 0.00 51 1013.6
20260507144005 46 55 3.5 7.0 0.00 0.00 0.00 51 1013.5
20260507143909 46 30 3.5 7.0 0.00 0.00 0.00 54 1013.5
20260507143831 46 355 2.6 5.2 0.00 0.00 0.00 54 1013.6
20260507143714 46 16 1.7 6.1 0.00 0.00 0.00 53 1013.5
20260507143618 46 20 1.7 5.2 0.00 0.00 0.00 52 1013.4
20260507143521 46 17 2.6 5.2 0.00 0.00 0.00 52 1013.5
20260507143429 46 5 3.5 5.2 0.00 0.00 0.00 54 1013.4
20260507143306 46 360 2.6 5.2 0.00 0.00 0.00 54 1013.5
20260507143209 46 336 1.7 4.3 0.00 0.00 0.00 54 1013.4
20260507143113 46 46 2.6 6.1 0.00 0.00 0.00 53 1013.4
20260507143038 46 26 3.5 6.1 0.00 0.00 0.00 53 1013.4
20260507142919 46 35 2.6 6.1 0.00 0.00 0.00 56 1013.5
20260507142808 46 360 2.6 6.1 0.00 0.00 0.00 55 1013.5
20260507142732 46 290 3.5 6.1 0.00 0.00 0.00 55 1013.4
20260507142615 46 264 2.6 6.1 0.00 0.00 0.00 57 1013.5
20260507142539 46 276 2.6 6.1 0.00 0.00 0.00 58 1013.4
20260507142422 46 273 3.5 6.1 0.00 0.00 0.00 57 1013.5
20260507142326 45 257 3.5 6.1 0.00 0.00 0.00 56 1013.5
20260507142209 45 241 2.6 5.2 0.00 0.00 0.00 55 1013.5
20260507142133 45 276 2.6 5.2 0.00 0.00 0.00 56 1013.5
20260507142020 45 277 3.5 5.2 0.00 0.00 0.00 56 1013.5
20260507141924 45 292 2.6 5.2 0.00 0.00 0.00 56 1013.5
20260507141806 45 295 0.9 5.2 0.00 0.00 0.00 56 1013.5
20260507141709 45 342 0.9 5.2 0.00 0.00 0.00 55 1013.5
20260507141614 45 341 1.7 5.2 0.00 0.00 0.00 56 1013.5
20260507141518 45 340 2.6 5.2 0.00 0.00 0.00 55 1013.5
20260507141406 45 327 2.6 5.2 0.00 0.00 0.00 55 1013.5
20260507141310 45 321 3.5 4.3 0.00 0.00 0.00 57 1013.5
20260507141213 45 321 3.5 4.3 0.00 0.00 0.00 57 1013.5
20260507141137 45 303 1.7 4.3 0.00 0.00 0.00 58 1013.5
20260507141019 45 236 0.9 4.3 0.00 0.00 0.00 58 1013.6
20260507140922 45 238 1.7 4.3 0.00 0.00 0.00 59 1013.6
20260507140826 44 219 1.7 7.0 0.00 0.00 0.00 59 1013.6
20260507140729 44 217 1.7 7.0 0.00 0.00 0.00 58 1013.6
20260507140616 44 355 2.6 7.0 0.00 0.00 0.00 58 1013.7
20260507140540 44 345 2.6 7.0 0.00 0.00 0.00 59 1013.7
20260507140442 44 336 2.6 7.0 0.00 0.00 0.00 61 1013.8
20260507140305 44 287 1.7 7.0 0.00 0.00 0.00 58 1013.8
20260507140210 44 288 2.6 7.0 0.00 0.00 0.00 59 1013.7
20260507140114 44 281 3.5 7.0 0.00 0.00 0.00 58 1013.7
20260507140017 44 301 3.5 7.0 0.00 0.00 0.00 59 1013.7
20260507135925 44 298 3.5 7.0 0.00 0.00 0.00 59 1013.7
20260507135848 44 289 3.5 7.0 0.00 0.00 0.00 59 1013.7
20260507135752 44 302 3.5 7.0 0.00 0.00 0.00 60 1013.8
20260507135605 44 297 4.3 7.0 0.00 0.00 0.00 60 1013.7
20260507135508 44 297 4.3 7.0 0.00 0.00 0.00 61 1013.7
20260507135411 44 264 5.2 7.0 0.00 0.00 0.00 60 1013.7
20260507135334 44 292 5.2 7.0 0.00 0.00 0.00 61 1013.7
20260507135236 44 273 4.3 5.2 0.00 0.00 0.00 62 1013.7
20260507135121 44 281 3.5 5.2 0.00 0.00 0.00 62 1013.7
20260507135005 44 282 3.5 6.1 0.00 0.00 0.00 61 1013.8
20260507134908 44 308 3.5 6.1 0.00 0.00 0.00 61 1013.8
20260507134811 44 290 2.6 6.1 0.00 0.00 0.00 62 1013.8
20260507134714 43 327 2.6 5.2 0.00 0.00 0.00 63 1013.8
20260507134617 43 291 3.5 5.2 0.00 0.00 0.00 62 1013.8
20260507134524 43 313 2.6 6.1 0.00 0.00 0.00 63 1013.8
20260507134426 43 350 1.7 5.2 0.00 0.00 0.00 63 1013.8
20260507134310 43 304 2.6 5.2 0.00 0.00 0.00 64 1013.7
20260507134213 43 325 2.6 5.2 0.00 0.00 0.00 65 1013.8
20260507134117 43 300 2.6 5.2 0.00 0.00 0.00 65 1013.8
20260507134022 43 279 3.5 5.2 0.00 0.00 0.00 65 1013.8
20260507133944 43 293 1.7 7.8 0.00 0.00 0.00 65 1013.8
20260507133851 42 296 1.7 7.8 0.00 0.00 0.00 66 1013.8
20260507133706 42 345 2.6 7.8 0.00 0.00 0.00 66 1013.8
20260507133609 42 344 2.6 7.8 0.00 0.00 0.00 66 1013.8
20260507133513 42 306 2.6 7.8 0.00 0.00 0.00 67 1013.8
20260507133416 42 318 3.5 7.8 0.00 0.00 0.00 67 1013.8
20260507133320 42 298 3.5 7.8 0.00 0.00 0.00 67 1013.8
20260507133208 42 283 5.2 7.8 0.00 0.00 0.00 67 1013.8
20260507133113 42 302 6.1 7.8 0.00 0.00 0.00 68 1013.8
20260507133037 42 294 5.2 7.0 0.00 0.00 0.00 69 1013.8
20260507132921 42 290 3.5 7.0 0.00 0.00 0.00 70 1013.8
20260507132805 41 295 2.6 7.0 0.00 0.00 0.00 69 1013.9
20260507132710 41 304 2.6 7.0 0.00 0.00 0.00 70 1013.8
20260507132619 41 303 3.5 7.0 0.00 0.00 0.00 71 1013.8
20260507132523 41 325 3.5 7.0 0.00 0.00 0.00 72 1013.8
20260507132408 41 302 2.6 5.2 0.00 0.00 0.00 73 1013.8
20260507132311 41 342 1.7 5.2 0.00 0.00 0.00 73 1013.8
20260507132236 41 319 1.7 5.2 0.00 0.00 0.00 73 1013.8
20260507132119 40 331 1.7 5.2 0.00 0.00 0.00 73 1013.8
20260507132005 40 337 2.6 5.2 0.00 0.00 0.00 72 1013.8
20260507131929 40 297 2.6 5.2 0.00 0.00 0.00 72 1013.9
20260507131807 40 300 3.5 5.2 0.00 0.00 0.00 72 1013.9
20260507131731 40 309 4.3 5.2 0.00 0.00 0.00 72 1013.8
20260507131634 40 309 4.3 5.2 0.00 0.00 0.00 73 1013.8
20260507131537 40 317 2.6 4.3 0.00 0.00 0.00 74 1013.8
20260507131420 40 321 2.6 3.5 0.00 0.00 0.00 75 1013.9
20260507131344 40 313 1.7 4.3 0.00 0.00 0.00 74 1013.9
20260507131212 40 350 1.7 4.3 0.00 0.00 0.00 74 1013.8
20260507131115 40 350 1.7 4.3 0.00 0.00 0.00 74 1013.8
20260507131019 39 355 1.7 4.3 0.00 0.00 0.00 74 1013.8
20260507130923 39 342 1.7 4.3 0.00 0.00 0.00 75 1013.8
20260507130828 39 313 2.6 4.3 0.00 0.00 0.00 75 1013.8
20260507130711 39 307 2.6 4.3 0.00 0.00 0.00 75 1013.8
20260507130635 39 304 2.6 4.3 0.00 0.00 0.00 75 1013.8
20260507130523 39 320 3.5 4.3 0.00 0.00 0.00 76 1013.9
20260507130407 39 291 3.5 4.3 0.00 0.00 0.00 77 1013.8
20260507130331 39 293 2.6 3.5 0.00 0.00 0.00 77 1013.9
20260507130208 39 286 0.9 3.5 0.00 0.00 0.00 79 1013.9
20260507130113 39 284 0.9 2.6 0.00 0.00 0.00 79 1013.9
20260507130037 38 284 0.9 2.6 0.00 0.00 0.00 79 1013.9
20260507125920 38 284 0.9 2.6 0.00 0.00 0.00 79 1013.9
20260507125808 38 284 1.7 2.6 0.00 0.00 0.00 79 1013.9
20260507125713 38 284 1.7 2.6 0.00 0.00 0.00 79 1013.9
20260507125617 38 284 1.7 2.6 0.00 0.00 0.00 79 1013.9
20260507125521 38 284 1.7 3.5 0.00 0.00 0.00 80 1013.9
20260507125425 37 284 1.7 3.5 0.00 0.00 0.00 80 1013.9
20260507125313 37 285 1.7 3.5 0.00 0.00 0.00 80 1013.9
20260507125237 37 285 1.7 3.5 0.00 0.00 0.00 80 1013.9
20260507125121 37 285 1.7 3.5 0.00 0.00 0.00 81 1013.9
20260507124910 37 286 1.7 3.5 0.00 0.00 0.00 81 1014.0
20260507124815 37 285 2.6 3.5 0.00 0.00 0.00 81 1013.9
20260507124739 37 285 1.7 4.3 0.00 0.00 0.00 82 1013.9
20260507124607 37 275 1.7 4.3 0.00 0.00 0.00 83 1014.0
20260507124511 37 275 1.7 4.3 0.00 0.00 0.00 83 1013.9
20260507124416 37 275 2.6 4.3 0.00 0.00 0.00 83 1014.0
20260507124320 37 275 1.7 4.3 0.00 0.00 0.00 84 1014.0
20260507124244 36 275 1.7 4.3 0.00 0.00 0.00 84 1013.9
20260507124107 36 284 2.6 4.3 0.00 0.00 0.00 85 1013.9
20260507124031 36 282 2.6 4.3 0.00 0.00 0.00 85 1013.9
20260507123918 36 284 2.6 4.3 0.00 0.00 0.00 86 1014.0
20260507123842 36 269 1.7 3.5 0.00 0.00 0.00 86 1014.0
20260507123706 36 259 1.7 3.5 0.00 0.00 0.00 87 1014.0
20260507123629 35 259 1.7 3.5 0.00 0.00 0.00 87 1014.0
20260507123506 35 259 1.7 3.5 0.00 0.00 0.00 88 1014.0
20260507123430 35 259 1.7 3.5 0.00 0.00 0.00 88 1013.9
20260507123333 35 259 2.6 3.5 0.00 0.00 0.00 88 1013.9
20260507123220 35 258 1.7 3.5 0.00 0.00 0.00 89 1013.9
20260507123125 34 258 1.7 3.5 0.00 0.00 0.00 89 1013.9
20260507123009 34 257 1.7 2.6 0.00 0.00 0.00 89 1014.0
20260507122913 34 257 1.7 2.6 0.00 0.00 0.00 90 1014.0
20260507122818 34 257 1.7 2.6 0.00 0.00 0.00 90 1013.9
20260507122722 34 257 1.7 2.6 0.00 0.00 0.00 90 1014.0
20260507122611 33 257 1.7 2.6 0.00 0.00 0.00 91 1013.9
20260507122515 33 257 1.7 2.6 0.00 0.00 0.00 91 1013.9
20260507122418 33 257 1.7 2.6 0.00 0.00 0.00 91 1013.9
20260507122323 33 257 1.7 2.6 0.00 0.00 0.00 91 1013.9
20260507122208 33 270 1.7 2.6 0.00 0.00 0.00 90 1013.9
20260507122113 32 27 1.7 2.6 0.00 0.00 0.00 90 1013.9
20260507122021 32 35 0.9 2.6 0.00 0.00 0.00 90 1013.9
20260507121906 32 44 0.9 2.6 0.00 0.00 0.00 91 1014.0
20260507121830 32 44 0.9 2.6 0.00 0.00 0.00 91 1014.0
20260507121706 32 44 0.9 2.6 0.00 0.00 0.00 90 1014.0
20260507121610 31 51 1.7 2.6 0.00 0.00 0.00 90 1014.0
20260507121515 31 51 1.7 2.6 0.00 0.00 0.00 90 1014.0
20260507121424 31 51 1.7 2.6 0.00 0.00 0.00 89 1013.9
20260507121327 31 51 1.7 2.6 0.00 0.00 0.00 90 1013.9
20260507121230 31 52 1.7 1.7 0.00 0.00 0.00 89 1014.0
20260507121114 31 52 1.7 1.7 0.00 0.00 0.00 89 1013.9
20260507121019 31 52 1.7 1.7 0.00 0.00 0.00 90 1014.0
20260507120925 31 52 0.9 1.7 0.00 0.00 0.00 90 1013.9
20260507120830 31 52 0.0 1.7 0.00 0.00 0.00 90 1013.9
20260507120738 31 52 0.0 0.0 0.00 0.00 0.00 90 1013.9
20260507120643 31 52 0.0 0.0 0.00 0.00 0.00 90 1013.9
20260507120507 31 52 0.0 0.0 0.00 0.00 0.00 90 1014.0
20260507120432 31 52 0.0 0.0 0.00 0.00 0.00 90 1014.0
20260507120337 30 52 0.0 0.0 0.00 0.00 0.00 90 1014.0
20260507120222 30 52 0.0 0.0 0.00 0.00 0.00 91 1014.0
20260507120127 30 52 0.0 0.0 0.00 0.00 0.00 91 1013.9
20260507120012 30 52 0.0 0.0 0.00 0.00 0.00 91 1014.0
20260507115942 30 52 0.0 0.0 0.00 0.00 0.00 91 1013.9
20260507115806 30 52 0.0 0.0 0.00 0.00 0.00 91 1013.9
20260507115710 30 52 0.0 0.0 0.00 0.00 0.00 91 1013.9
20260507115613 30 52 0.0 0.0 0.00 0.00 0.00 91 1013.9
20260507115532 30 52 0.0 0.0 0.00 0.00 0.00 91 1013.9
20260507115412 29 52 0.0 0.0 0.00 0.00 0.00 90 1013.9
20260507115312 29 52 0.0 0.9 0.00 0.00 0.00 90 1013.9
20260507115217 29 52 0.0 0.9 0.00 0.00 0.00 90 1013.9
20260507115118 29 52 0.0 0.9 0.00 0.00 0.00 90 1013.9
20260507115018 29 52 0.0 0.9 0.00 0.00 0.00 90 1013.9
20260507114939 29 52 0.0 0.9 0.00 0.00 0.00 90 1013.9
20260507114819 29 52 0.0 0.9 0.00 0.00 0.00 90 1014.0
20260507114721 29 52 0.0 0.9 0.00 0.00 0.00 91 1013.9
20260507114642 29 52 0.0 0.9 0.00 0.00 0.00 91 1013.9
20260507114506 29 52 0.0 0.9 0.00 0.00 0.00 91 1013.9
20260507114411 29 70 0.0 0.0 0.00 0.00 0.00 90 1013.9
20260507114314 29 70 0.0 0.0 0.00 0.00 0.00 90 1013.9
20260507114218 29 70 0.0 0.0 0.00 0.00 0.00 90 1014.0
20260507114143 29 70 0.0 0.0 0.00 0.00 0.00 90 1014.0
20260507114005 28 70 0.0 0.0 0.00 0.00 0.00 90 1014.0
20260507113930 28 70 0.0 0.0 0.00 0.00 0.00 90 1013.9
20260507113837 28 70 0.0 0.0 0.00 0.00 0.00 90 1014.0
20260507113721 28 70 0.0 0.0 0.00 0.00 0.00 90 1013.9
20260507113605 28 70 0.0 0.0 0.00 0.00 0.00 90 1013.9
20260507113511 28 70 0.0 0.0 0.00 0.00 0.00 90 1014.0
20260507113414 28 70 0.0 0.0 0.00 0.00 0.00 90 1013.9
20260507113339 28 70 0.0 0.0 0.00 0.00 0.00 90 1013.9
20260507113221 28 70 0.0 0.0 0.00 0.00 0.00 90 1013.9
20260507113109 28 70 0.0 0.0 0.00 0.00 0.00 89 1013.8
20260507113013 28 70 0.0 0.0 0.00 0.00 0.00 89 1013.8
20260507112937 28 70 0.0 0.0 0.00 0.00 0.00 89 1013.9
20260507112819 28 70 0.0 0.0 0.00 0.00 0.00 89 1013.8
20260507112705 28 70 0.0 0.0 0.00 0.00 0.00 89 1013.9
20260507112631 28 70 0.0 0.0 0.00 0.00 0.00 89 1013.8
20260507112520 28 70 0.0 0.0 0.00 0.00 0.00 89 1014.0
20260507112425 28 70 0.0 0.0 0.00 0.00 0.00 89 1013.8
20260507112310 28 70 0.0 0.0 0.00 0.00 0.00 89 1013.8
20260507112215 28 70 0.0 0.0 0.00 0.00 0.00 89 1013.8
20260507112122 28 70 0.0 0.0 0.00 0.00 0.00 89 1013.8
20260507112007 28 70 0.0 0.0 0.00 0.00 0.00 89 1013.8
20260507111914 28 70 0.0 0.0 0.00 0.00 0.00 89 1013.8
20260507111818 28 70 0.0 0.0 0.00 0.00 0.00 89 1013.8
20260507111723 28 70 0.0 0.0 0.00 0.00 0.00 88 1013.9
20260507111607 28 70 0.0 0.0 0.00 0.00 0.00 88 1013.8
20260507111511 28 70 0.0 0.0 0.00 0.00 0.00 88 1013.9
20260507111435 28 70 0.0 0.0 0.00 0.00 0.00 88 1013.9
20260507111322 28 70 0.0 0.0 0.00 0.00 0.00 88 1013.9
20260507111225 28 70 0.0 0.0 0.00 0.00 0.00 88 1014.0
20260507111110 28 70 0.0 0.0 0.00 0.00 0.00 88 1014.0
20260507111013 28 70 0.0 0.0 0.00 0.00 0.00 88 1013.9
20260507110917 28 70 0.0 0.0 0.00 0.00 0.00 88 1013.9
20260507110821 28 70 0.0 0.0 0.00 0.00 0.00 88 1014.0
20260507110708 28 70 0.0 0.0 0.00 0.00 0.00 88 1014.0
20260507110613 28 70 0.0 0.0 0.00 0.00 0.00 88 1014.0
20260507110538 28 70 0.0 0.0 0.00 0.00 0.00 88 1014.0
20260507110422 28 70 0.0 0.0 0.00 0.00 0.00 88 1013.9
20260507110345 28 70 0.0 0.0 0.00 0.00 0.00 88 1014.0
20260507110209 29 70 0.0 0.0 0.00 0.00 0.00 88 1014.0
20260507110132 29 70 0.0 0.0 0.00 0.00 0.00 88 1014.0
20260507110019 29 70 0.0 0.0 0.00 0.00 0.00 88 1014.0
20260507105924 29 70 0.0 0.0 0.00 0.00 0.00 88 1014.0
20260507105827 29 70 0.0 0.9 0.00 0.00 0.00 88 1014.0
20260507105710 29 70 0.0 1.7 0.00 0.00 0.00 88 1014.0
20260507105635 29 360 0.0 1.7 0.00 0.00 0.00 88 1014.0
20260507105517 29 360 0.0 1.7 0.00 0.00 0.00 88 1014.0
20260507105420 29 360 0.0 1.7 0.00 0.00 0.00 88 1013.9
20260507105307 29 51 0.0 2.6 0.00 0.00 0.00 89 1013.9
20260507105231 29 51 0.0 2.6 0.00 0.00 0.00 89 1013.9
20260507105113 29 51 0.0 2.6 0.00 0.00 0.00 89 1013.9
20260507105016 29 51 0.9 2.6 0.00 0.00 0.00 89 1014.0
20260507104920 29 51 0.9 2.6 0.00 0.00 0.00 89 1013.9
20260507104822 29 51 0.9 2.6 0.00 0.00 0.00 89 1014.0
20260507104746 29 51 0.9 2.6 0.00 0.00 0.00 89 1013.9
20260507104632 29 51 0.9 2.6 0.00 0.00 0.00 89 1013.8
20260507104508 29 51 1.7 2.6 0.00 0.00 0.00 89 1013.9
20260507104411 29 51 1.7 2.6 0.00 0.00 0.00 89 1013.8
20260507104314 29 51 2.6 2.6 0.00 0.00 0.00 89 1013.9
20260507104217 29 51 2.6 2.6 0.00 0.00 0.00 89 1013.8
20260507104120 29 51 1.7 2.6 0.00 0.00 0.00 89 1013.9
20260507104006 29 51 1.7 2.6 0.00 0.00 0.00 89 1013.8
20260507103930 29 51 0.9 1.7 0.00 0.00 0.00 88 1013.8
20260507103832 29 51 0.9 1.7 0.00 0.00 0.00 88 1013.7
20260507103708 29 51 0.9 1.7 0.00 0.00 0.00 89 1013.8
20260507103612 29 51 0.9 1.7 0.00 0.00 0.00 89 1013.8
20260507103515 29 51 0.9 1.7 0.00 0.00 0.00 89 1013.8
20260507103438 29 51 0.9 1.7 0.00 0.00 0.00 89 1013.8
20260507103341 29 51 0.9 1.7 0.00 0.00 0.00 89 1013.8
20260507103206 29 51 0.9 2.6 0.00 0.00 0.00 89 1013.8
20260507103109 29 51 0.9 2.6 0.00 0.00 0.00 89 1013.8
20260507103012 29 51 0.9 2.6 0.00 0.00 0.00 89 1013.8
20260507102914 29 51 0.9 3.5 0.00 0.00 0.00 89 1013.8
20260507102817 29 51 0.9 3.5 0.00 0.00 0.00 89 1013.8
20260507102721 29 51 1.7 3.5 0.00 0.00 0.00 89 1013.8
20260507102607 29 51 1.7 3.5 0.00 0.00 0.00 89 1013.8
20260507102530 29 51 1.7 3.5 0.00 0.00 0.00 89 1013.8
20260507102432 29 51 1.7 3.5 0.00 0.00 0.00 89 1013.9
20260507102315 29 51 1.7 3.5 0.00 0.00 0.00 89 1013.8
20260507102238 29 51 2.6 3.5 0.00 0.00 0.00 89 1013.9
20260507102120 29 51 2.6 3.5 0.00 0.00 0.00 89 1013.8
20260507102044 29 51 2.6 3.5 0.00 0.00 0.00 89 1013.9
20260507101910 29 51 2.6 3.5 0.00 0.00 0.00 89 1013.9
20260507101813 29 51 2.6 3.5 0.00 0.00 0.00 89 1013.9
20260507101714 29 51 1.7 3.5 0.00 0.00 0.00 90 1013.9
20260507101615 29 263 0.0 1.7 0.00 0.00 0.00 89 1013.9
20260507101516 29 263 0.0 1.7 0.00 0.00 0.00 90 1013.9
20260507101416 29 263 0.0 1.7 0.00 0.00 0.00 89 1013.8
20260507101320 29 263 0.0 1.7 0.00 0.00 0.00 89 1013.7
20260507101206 29 263 0.0 2.6 0.00 0.00 0.00 89 1013.8
20260507101130 29 263 0.0 2.6 0.00 0.00 0.00 89 1013.8
20260507101006 29 263 0.9 2.6 0.00 0.00 0.00 89 1013.7
20260507100929 29 263 0.9 2.6 0.00 0.00 0.00 89 1013.8
20260507100830 29 263 0.9 2.6 0.00 0.00 0.00 89 1013.8
20260507100714 29 263 0.9 2.6 0.00 0.00 0.00 89 1013.8
20260507100618 29 263 0.9 2.6 0.00 0.00 0.00 89 1013.8
20260507100507 29 263 1.7 2.6 0.00 0.00 0.00 89 1013.7
20260507100430 29 263 1.7 2.6 0.00 0.00 0.00 89 1013.8
20260507100333 29 263 1.7 2.6 0.00 0.00 0.00 89 1013.8
20260507100208 29 263 1.7 2.6 0.00 0.00 0.00 89 1013.8
20260507100111 29 263 1.7 2.6 0.00 0.00 0.00 89 1013.7
20260507100036 29 263 1.7 2.6 0.00 0.00 0.00 89 1013.8
20260507095920 29 263 1.7 2.6 0.00 0.00 0.00 89 1013.8
20260507095809 29 263 1.7 2.6 0.00 0.00 0.00 89 1013.8
20260507095713 29 263 1.7 2.6 0.00 0.00 0.00 89 1013.8
20260507095618 29 263 1.7 1.7 0.00 0.00 0.00 89 1013.8
20260507095521 29 263 0.9 1.7 0.00 0.00 0.00 89 1013.9
20260507095446 29 263 0.9 1.7 0.00 0.00 0.00 89 1013.9
20260507095308 29 263 0.0 0.0 0.00 0.00 0.00 89 1013.9
20260507095237 29 263 0.0 0.0 0.00 0.00 0.00 89 1013.8
20260507095121 29 263 0.0 0.0 0.00 0.00 0.00 89 1013.9
20260507095006 29 263 0.0 0.0 0.00 0.00 0.00 89 1013.9
20260507094911 29 263 0.0 0.0 0.00 0.00 0.00 89 1013.9
20260507094815 29 263 0.0 0.0 0.00 0.00 0.00 89 1013.9
20260507094720 29 263 0.0 0.0 0.00 0.00 0.00 89 1013.9
20260507094608 29 263 0.0 0.0 0.00 0.00 0.00 89 1013.9
20260507094533 29 263 0.0 0.0 0.00 0.00 0.00 89 1014.0
20260507094418 29 263 0.0 0.0 0.00 0.00 0.00 89 1014.0
20260507094342 29 263 0.0 0.0 0.00 0.00 0.00 89 1013.9
20260507094207 29 263 0.0 0.0 0.00 0.00 0.00 89 1013.9
20260507094111 29 263 0.0 0.0 0.00 0.00 0.00 89 1014.0
20260507094035 29 263 0.0 0.0 0.00 0.00 0.00 89 1013.9
20260507093923 29 263 0.0 0.0 0.00 0.00 0.00 89 1013.9
20260507093845 29 263 0.0 0.0 0.00 0.00 0.00 89 1013.9
20260507093710 29 263 0.0 0.0 0.00 0.00 0.00 89 1014.0
20260507093614 29 263 0.0 0.0 0.00 0.00 0.00 89 1014.0
20260507093519 29 263 0.0 0.0 0.00 0.00 0.00 89 1013.9
20260507093444 29 263 0.0 0.0 0.00 0.00 0.00 89 1014.0
20260507093307 29 263 0.0 0.0 0.00 0.00 0.00 89 1013.9
20260507093237 29 263 0.0 0.0 0.00 0.00 0.00 89 1013.9
20260507093118 29 263 0.0 0.0 0.00 0.00 0.00 89 1013.9
20260507093024 29 263 0.0 0.0 0.00 0.00 0.00 89 1013.9
20260507092927 29 263 0.0 0.0 0.00 0.00 0.00 89 1013.9
20260507092811 29 263 0.0 0.0 0.00 0.00 0.00 90 1014.0
20260507092714 29 263 0.0 0.0 0.00 0.00 0.00 90 1014.0
20260507092620 29 263 0.0 0.0 0.00 0.00 0.00 90 1014.0
20260507092508 29 263 0.0 0.0 0.00 0.00 0.00 90 1014.0
20260507092411 29 263 0.0 0.0 0.00 0.00 0.00 90 1014.0
20260507092315 29 263 0.0 0.0 0.00 0.00 0.00 90 1014.0
20260507092220 29 263 0.0 0.0 0.00 0.00 0.00 90 1014.0
20260507092122 29 263 0.0 0.0 0.00 0.00 0.00 90 1014.0
20260507092012 29 263 0.0 0.9 0.00 0.00 0.00 90 1013.9
20260507091915 29 263 0.0 0.9 0.00 0.00 0.00 90 1014.0
20260507091841 29 263 0.0 0.9 0.00 0.00 0.00 90 1014.0
20260507091706 29 263 0.0 0.9 0.00 0.00 0.00 90 1014.0
20260507091632 29 263 0.0 0.9 0.00 0.00 0.00 90 1014.0
20260507091536 29 263 0.0 0.9 0.00 0.00 0.00 90 1014.0
20260507091421 29 263 0.0 0.9 0.00 0.00 0.00 90 1014.0
20260507091311 29 263 0.0 0.9 0.00 0.00 0.00 90 1013.9
20260507091217 29 263 0.0 0.9 0.00 0.00 0.00 90 1014.0
20260507091123 28 263 0.0 0.9 0.00 0.00 0.00 90 1014.0
20260507091007 28 263 0.0 0.0 0.00 0.00 0.00 90 1014.0
20260507090934 28 263 0.0 0.0 0.00 0.00 0.00 90 1014.0
20260507090818 28 263 0.0 0.9 0.00 0.00 0.00 90 1013.9
20260507090706 29 263 0.0 0.9 0.00 0.00 0.00 90 1013.9
20260507090612 28 263 0.0 0.9 0.00 0.00 0.00 90 1013.9
20260507090517 28 263 0.0 1.7 0.00 0.00 0.00 90 1014.0
20260507090424 28 263 0.0 1.7 0.00 0.00 0.00 90 1013.9
20260507090309 28 263 0.0 1.7 0.00 0.00 0.00 90 1013.9
20260507090234 28 263 0.0 1.7 0.00 0.00 0.00 90 1013.9
20260507090137 28 263 0.0 1.7 0.00 0.00 0.00 90 1013.9
20260507090025 28 263 0.0 1.7 0.00 0.00 0.00 90 1013.9
20260507085950 28 263 0.9 1.7 0.00 0.00 0.00 90 1013.9
20260507085806 28 263 0.9 2.6 0.00 0.00 0.00 90 1013.9
20260507085710 28 263 1.7 2.6 0.00 0.00 0.00 90 1013.9
20260507085615 28 263 1.7 2.6 0.00 0.00 0.00 90 1014.0
20260507085520 28 263 1.7 2.6 0.00 0.00 0.00 90 1013.9
20260507085409 28 263 1.7 2.6 0.00 0.00 0.00 90 1013.8
20260507085334 28 263 1.7 2.6 0.00 0.00 0.00 90 1013.9
20260507085218 28 263 1.7 2.6 0.00 0.00 0.00 90 1013.9
20260507085121 28 263 1.7 2.6 0.00 0.00 0.00 90 1013.9
20260507085045 28 263 1.7 2.6 0.00 0.00 0.00 90 1013.9
20260507084929 28 263 1.7 2.6 0.00 0.00 0.00 90 1013.8
20260507084833 28 263 1.7 2.6 0.00 0.00 0.00 90 1013.8
20260507084736 28 263 1.7 2.6 0.00 0.00 0.00 89 1013.8
20260507084619 28 263 1.7 2.6 0.00 0.00 0.00 89 1013.8
20260507084508 28 263 0.9 2.6 0.00 0.00 0.00 89 1013.8
20260507084414 28 263 1.7 2.6 0.00 0.00 0.00 89 1013.8
20260507084338 28 263 1.7 2.6 0.00 0.00 0.00 89 1013.9
20260507084221 28 263 1.7 2.6 0.00 0.00 0.00 89 1013.9
20260507084126 28 263 1.7 2.6 0.00 0.00 0.00 89 1013.8
20260507084031 28 263 1.7 2.6 0.00 0.00 0.00 89 1013.8
20260507083934 28 263 1.7 2.6 0.00 0.00 0.00 89 1013.8
20260507083821 28 263 1.7 2.6 0.00 0.00 0.00 89 1013.8
20260507083705 28 272 1.7 2.6 0.00 0.00 0.00 89 1013.8
20260507083609 28 272 1.7 2.6 0.00 0.00 0.00 89 1013.8
20260507083514 28 272 0.9 2.6 0.00 0.00 0.00 89 1013.8
20260507083438 28 272 0.9 2.6 0.00 0.00 0.00 89 1013.9
20260507083322 28 272 0.9 2.6 0.00 0.00 0.00 89 1013.9
20260507083211 28 272 1.7 2.6 0.00 0.00 0.00 89 1013.9
20260507083114 28 272 1.7 2.6 0.00 0.00 0.00 89 1013.9
20260507083018 28 272 1.7 2.6 0.00 0.00 0.00 89 1013.9
20260507082922 28 272 1.7 2.6 0.00 0.00 0.00 89 1013.9
20260507082806 28 272 0.9 1.7 0.00 0.00 0.00 88 1013.9
20260507082710 28 272 0.9 1.7 0.00 0.00 0.00 89 1013.9
20260507082635 28 272 0.9 1.7 0.00 0.00 0.00 89 1013.9
20260507082522 28 272 0.9 1.7 0.00 0.00 0.00 89 1013.9
20260507082446 28 272 0.9 1.7 0.00 0.00 0.00 89 1013.9
20260507082309 28 272 0.9 1.7 0.00 0.00 0.00 89 1013.9
20260507082212 28 272 0.9 1.7 0.00 0.00 0.00 88 1013.9
20260507082117 28 272 0.9 1.7 0.00 0.00 0.00 88 1013.9
20260507082019 28 272 0.9 2.6 0.00 0.00 0.00 88 1013.9
20260507081929 28 272 0.9 2.6 0.00 0.00 0.00 88 1013.8
20260507081805 28 272 0.9 2.6 0.00 0.00 0.00 88 1013.9
20260507081709 28 272 0.9 2.6 0.00 0.00 0.00 88 1013.9
20260507081613 28 272 0.9 2.6 0.00 0.00 0.00 88 1013.9
20260507081517 28 272 0.9 2.6 0.00 0.00 0.00 88 1013.9
20260507081420 28 272 1.7 2.6 0.00 0.00 0.00 88 1013.9
20260507081329 28 272 1.7 2.6 0.00 0.00 0.00 88 1013.9
20260507081206 28 272 1.7 2.6 0.00 0.00 0.00 88 1013.9
20260507081110 28 272 1.7 2.6 0.00 0.00 0.00 88 1013.9
20260507081012 28 275 1.7 1.7 0.00 0.00 0.00 88 1013.9
20260507080916 28 276 0.9 1.7 0.00 0.00 0.00 88 1014.0
20260507080821 28 276 0.9 1.7 0.00 0.00 0.00 88 1013.9
20260507080729 28 276 0.9 1.7 0.00 0.00 0.00 88 1013.9
20260507080606 28 276 0.9 1.7 0.00 0.00 0.00 88 1014.0
20260507080529 28 276 0.9 1.7 0.00 0.00 0.00 88 1014.0
20260507080412 28 276 1.7 1.7 0.00 0.00 0.00 88 1013.9
20260507080315 28 276 0.9 1.7 0.00 0.00 0.00 88 1014.0
20260507080240 28 276 0.9 1.7 0.00 0.00 0.00 88 1013.9
20260507080122 28 276 0.9 1.7 0.00 0.00 0.00 88 1013.9
20260507080030 28 276 0.9 1.7 0.00 0.00 0.00 88 1013.9
20260507075905 28 276 0.9 1.7 0.00 0.00 0.00 88 1013.9
20260507075829 28 276 0.9 1.7 0.00 0.00 0.00 88 1013.8
20260507075752 28 276 0.9 1.7 0.00 0.00 0.00 87 1013.9
20260507075608 28 276 0.9 1.7 0.00 0.00 0.00 87 1013.9
20260507075510 28 281 0.0 0.0 0.00 0.00 0.00 87 1013.9
20260507075434 28 281 0.0 0.0 0.00 0.00 0.00 87 1013.8
20260507075338 28 281 0.0 0.0 0.00 0.00 0.00 87 1013.8
20260507075225 28 281 0.0 0.0 0.00 0.00 0.00 87 1013.8
20260507075108 28 281 0.0 0.0 0.00 0.00 0.00 87 1013.8
20260507075013 28 281 0.0 0.0 0.00 0.00 0.00 87 1013.8
20260507074916 28 281 0.0 0.0 0.00 0.00 0.00 86 1013.8
20260507074840 28 281 0.0 0.0 0.00 0.00 0.00 86 1013.8
20260507074724 28 281 0.0 0.0 0.00 0.00 0.00 86 1013.8
20260507074613 28 281 0.0 0.0 0.00 0.00 0.00 86 1013.8
20260507074537 28 281 0.0 0.0 0.00 0.00 0.00 86 1013.8
20260507074420 28 281 0.0 0.0 0.00 0.00 0.00 86 1013.8
20260507074305 29 281 0.0 0.0 0.00 0.00 0.00 86 1013.9
20260507074210 29 281 0.0 0.0 0.00 0.00 0.00 86 1013.8
20260507074116 29 281 0.0 0.0 0.00 0.00 0.00 86 1013.9
20260507074024 29 281 0.0 0.0 0.00 0.00 0.00 86 1013.8
20260507073928 29 281 0.0 0.0 0.00 0.00 0.00 86 1013.8
20260507073812 29 281 0.0 0.0 0.00 0.00 0.00 86 1013.9
20260507073717 29 281 0.0 0.0 0.00 0.00 0.00 86 1013.8
20260507073621 29 281 0.0 0.0 0.00 0.00 0.00 86 1013.8
20260507073526 29 281 0.0 0.0 0.00 0.00 0.00 86 1013.9
20260507073408 29 281 0.0 0.0 0.00 0.00 0.00 86 1013.9
20260507073317 29 281 0.0 0.0 0.00 0.00 0.00 86 1013.9
20260507073222 29 281 0.0 0.0 0.00 0.00 0.00 86 1013.9
20260507073107 29 281 0.0 0.0 0.00 0.00 0.00 86 1014.0
20260507073012 29 281 0.0 0.0 0.00 0.00 0.00 86 1013.9
20260507072916 29 281 0.0 0.0 0.00 0.00 0.00 86 1014.0
20260507072820 29 281 0.0 0.0 0.00 0.00 0.00 86 1014.0
20260507072729 29 281 0.0 0.0 0.00 0.00 0.00 86 1014.1
20260507072605 29 281 0.0 0.0 0.00 0.00 0.00 86 1014.0
20260507072528 29 281 0.0 0.0 0.00 0.00 0.00 86 1014.1
20260507072405 29 281 0.0 0.0 0.00 0.00 0.00 86 1014.1
20260507072330 29 281 0.0 0.0 0.00 0.00 0.00 86 1014.1
20260507072214 29 281 0.0 0.0 0.00 0.00 0.00 86 1014.1
20260507072122 29 281 0.0 0.0 0.00 0.00 0.00 86 1014.1
20260507072027 30 281 0.0 0.0 0.00 0.00 0.00 86 1014.1
20260507071910 30 281 0.0 0.0 0.00 0.00 0.00 85 1014.2
20260507071835 30 281 0.0 0.0 0.00 0.00 0.00 85 1014.2
20260507071739 30 281 0.0 0.0 0.00 0.00 0.00 85 1014.1
20260507071623 30 281 0.0 0.0 0.00 0.00 0.00 85 1014.3
20260507071506 30 281 0.0 0.0 0.00 0.00 0.00 85 1014.2
20260507071415 30 281 0.0 0.0 0.00 0.00 0.00 85 1014.2
20260507071318 30 281 0.0 0.0 0.00 0.00 0.00 85 1014.3
20260507071222 30 281 0.0 0.0 0.00 0.00 0.00 85 1014.3
20260507071106 30 281 0.0 0.0 0.00 0.00 0.00 85 1014.3
20260507071010 30 281 0.0 0.0 0.00 0.00 0.00 85 1014.3
20260507070936 30 281 0.0 0.0 0.00 0.00 0.00 85 1014.3
20260507070818 30 281 0.0 0.0 0.00 0.00 0.00 84 1014.3
20260507070707 30 281 0.0 0.0 0.00 0.00 0.00 84 1014.3
20260507070630 30 281 0.0 0.0 0.00 0.00 0.00 84 1014.4
20260507070505 30 281 0.0 0.0 0.00 0.00 0.00 84 1014.3
20260507070409 30 281 0.0 0.0 0.00 0.00 0.00 84 1014.4
20260507070313 30 281 0.0 0.0 0.00 0.00 0.00 84 1014.4
20260507070217 30 281 0.0 0.0 0.00 0.00 0.00 84 1014.4
20260507070144 30 281 0.0 0.0 0.00 0.00 0.00 84 1014.4
20260507070010 30 281 0.0 0.0 0.00 0.00 0.00 84 1014.4
20260507065929 30 281 0.0 0.0 0.00 0.00 0.00 84 1014.4
20260507065831 30 281 0.0 0.0 0.00 0.00 0.00 84 1014.4
20260507065713 30 281 0.0 0.0 0.00 0.00 0.00 83 1014.4
20260507065616 30 281 0.0 0.0 0.00 0.00 0.00 83 1014.5
20260507065519 30 281 0.0 0.0 0.00 0.00 0.00 83 1014.5
20260507065406 30 281 0.0 0.0 0.00 0.00 0.00 83 1014.5
20260507065310 30 281 0.0 0.0 0.00 0.00 0.00 83 1014.5
20260507065235 30 281 0.0 0.0 0.00 0.00 0.00 83 1014.5
20260507065119 30 281 0.0 0.0 0.00 0.00 0.00 82 1014.5
20260507065024 30 281 0.0 0.0 0.00 0.00 0.00 82 1014.5
20260507064928 31 281 0.0 0.0 0.00 0.00 0.00 81 1014.5
20260507064811 31 281 0.0 0.0 0.00 0.00 0.00 81 1014.5
20260507064739 31 281 0.0 0.0 0.00 0.00 0.00 81 1014.5
20260507064622 31 281 0.0 0.0 0.00 0.00 0.00 81 1014.5
20260507064527 31 281 0.0 0.0 0.00 0.00 0.00 81 1014.6
20260507064410 31 281 0.0 0.0 0.00 0.00 0.00 80 1014.5
20260507064316 31 281 0.0 0.0 0.00 0.00 0.00 81 1014.5
20260507064219 31 281 0.0 0.0 0.00 0.00 0.00 80 1014.5
20260507064106 31 281 0.0 0.0 0.00 0.00 0.00 80 1014.6
20260507064009 31 281 0.0 0.0 0.00 0.00 0.00 80 1014.6
20260507063929 31 281 0.0 0.0 0.00 0.00 0.00 80 1014.5
20260507063805 31 281 0.0 0.0 0.00 0.00 0.00 80 1014.6
20260507063709 31 281 0.0 0.0 0.00 0.00 0.00 80 1014.5
20260507063613 31 281 0.0 0.0 0.00 0.00 0.00 80 1014.5
20260507063518 31 281 0.0 0.0 0.00 0.00 0.00 80 1014.6
20260507063407 31 281 0.0 0.0 0.00 0.00 0.00 80 1014.5
20260507063330 31 281 0.0 0.0 0.00 0.00 0.00 80 1014.5
20260507063213 32 281 0.0 0.0 0.00 0.00 0.00 80 1014.5
20260507063117 32 281 0.0 0.0 0.00 0.00 0.00 80 1014.6
20260507063022 32 281 0.0 0.0 0.00 0.00 0.00 80 1014.6
20260507062926 32 281 0.0 0.0 0.00 0.00 0.00 80 1014.6
20260507062813 32 281 0.0 0.0 0.00 0.00 0.00 80 1014.6
20260507062715 32 281 0.0 0.0 0.00 0.00 0.00 80 1014.6
20260507062638 32 281 0.0 0.0 0.00 0.00 0.00 80 1014.6
20260507062521 32 281 0.0 0.0 0.00 0.00 0.00 80 1014.6
20260507062424 32 281 0.0 0.0 0.00 0.00 0.00 80 1014.6
20260507062308 32 281 0.0 0.0 0.00 0.00 0.00 80 1014.6
20260507062209 32 281 0.0 0.0 0.00 0.00 0.00 80 1014.6
20260507062114 32 281 0.0 0.0 0.00 0.00 0.00 80 1014.6
20260507062015 32 281 0.0 0.0 0.00 0.00 0.00 80 1014.7
20260507061914 32 281 0.0 0.9 0.00 0.00 0.00 80 1014.6
20260507061815 32 281 0.0 0.9 0.00 0.00 0.00 80 1014.7
20260507061714 32 281 0.0 0.9 0.00 0.00 0.00 80 1014.6
20260507061615 32 281 0.0 0.9 0.00 0.00 0.00 80 1014.7
20260507061520 32 281 0.0 0.9 0.00 0.00 0.00 80 1014.7
20260507061420 33 281 0.0 0.9 0.00 0.00 0.00 80 1014.7
20260507061321 33 281 0.0 0.9 0.00 0.00 0.00 80 1014.7
20260507061222 33 281 0.0 0.9 0.00 0.00 0.00 80 1014.7
20260507061122 33 281 0.0 0.9 0.00 0.00 0.00 80 1014.7
20260507061042 33 281 0.0 0.0 0.00 0.00 0.00 80 1014.7
20260507060922 33 281 0.0 0.0 0.00 0.00 0.00 80 1014.7
20260507060826 33 281 0.0 0.0 0.00 0.00 0.00 80 1014.7
20260507060727 33 281 0.0 0.9 0.00 0.00 0.00 80 1014.7
20260507060608 33 281 0.0 1.7 0.00 0.00 0.00 80 1014.7
20260507060509 33 281 0.0 1.7 0.00 0.00 0.00 80 1014.7
20260507060409 33 281 0.0 1.7 0.00 0.00 0.00 80 1014.8
20260507060309 33 281 0.0 1.7 0.00 0.00 0.00 80 1014.7
20260507060229 33 281 0.0 1.7 0.00 0.00 0.00 80 1014.8
20260507060158 33 281 0.0 1.7 0.00 0.00 0.00 79 1014.7
20260507060007 33 281 0.9 1.7 0.00 0.00 0.00 80 1014.8
20260507055909 33 281 0.9 1.7 0.00 0.00 0.00 80 1014.8
20260507055813 34 281 0.9 1.7 0.00 0.00 0.00 80 1014.8
20260507055715 34 281 0.9 1.7 0.00 0.00 0.00 80 1014.8
20260507055618 34 281 0.9 1.7 0.00 0.00 0.00 80 1014.8
20260507055505 34 281 0.9 1.7 0.00 0.00 0.00 80 1014.8
20260507055409 34 281 0.9 1.7 0.00 0.00 0.00 80 1014.8
20260507055312 34 281 0.9 1.7 0.00 0.00 0.00 80 1014.8
20260507055215 34 281 0.9 1.7 0.00 0.00 0.00 80 1014.8
20260507055119 34 281 0.9 1.7 0.00 0.00 0.00 80 1014.8
20260507055041 34 281 0.9 0.9 0.00 0.00 0.00 80 1014.8
20260507054907 34 281 0.9 0.9 0.00 0.00 0.00 80 1014.8
20260507054831 34 281 0.9 1.7 0.00 0.00 0.00 80 1014.8
20260507054707 34 281 0.9 1.7 0.00 0.00 0.00 79 1014.9
20260507054610 34 281 0.9 1.7 0.00 0.00 0.00 78 1014.8
20260507054513 34 281 0.9 1.7 0.00 0.00 0.00 78 1014.8
20260507054416 34 281 0.9 1.7 0.00 0.00 0.00 77 1014.9
20260507054319 34 281 0.9 1.7 0.00 0.00 0.00 77 1014.8
20260507054207 34 281 0.9 1.7 0.00 0.00 0.00 77 1014.9
20260507054129 34 281 0.9 1.7 0.00 0.00 0.00 77 1014.9
20260507054011 35 281 0.9 1.7 0.00 0.00 0.00 77 1014.8
20260507053915 35 281 0.9 1.7 0.00 0.00 0.00 77 1014.9
20260507053818 35 281 0.9 1.7 0.00 0.00 0.00 77 1014.9
20260507053721 35 281 0.9 1.7 0.00 0.00 0.00 77 1014.9
20260507053608 35 281 0.9 0.9 0.00 0.00 0.00 77 1014.9
20260507053511 35 281 0.9 0.9 0.00 0.00 0.00 77 1014.9
20260507053414 35 281 0.0 0.9 0.00 0.00 0.00 77 1014.9
20260507053317 35 281 0.0 0.9 0.00 0.00 0.00 77 1014.9
20260507053219 35 281 0.0 0.9 0.00 0.00 0.00 77 1014.9
20260507053122 35 281 0.0 1.7 0.00 0.00 0.00 78 1014.9
20260507053029 35 281 0.0 1.7 0.00 0.00 0.00 78 1014.8
20260507052905 35 281 0.0 1.7 0.00 0.00 0.00 78 1014.9
20260507052808 35 281 0.0 2.6 0.00 0.00 0.00 79 1014.9
20260507052711 35 281 0.0 2.6 0.00 0.00 0.00 79 1014.8
20260507052634 35 281 0.9 2.6 0.00 0.00 0.00 79 1014.9
20260507052515 35 281 0.9 2.6 0.00 0.00 0.00 79 1014.8
20260507052439 35 281 0.9 2.6 0.00 0.00 0.00 80 1014.8
20260507052306 36 281 0.9 2.6 0.00 0.00 0.00 80 1014.9
20260507052208 36 281 1.7 2.6 0.00 0.00 0.00 80 1014.9
20260507052111 36 281 1.7 2.6 0.00 0.00 0.00 80 1014.9
20260507052014 36 281 1.7 2.6 0.00 0.00 0.00 80 1014.9
20260507051917 36 281 1.7 2.6 0.00 0.00 0.00 80 1014.9
20260507051819 36 281 1.7 2.6 0.00 0.00 0.00 80 1014.9
20260507051707 36 281 1.7 2.6 0.00 0.00 0.00 79 1014.9
20260507051609 36 281 1.7 2.6 0.00 0.00 0.00 79 1014.9
20260507051532 36 281 1.7 2.6 0.00 0.00 0.00 79 1014.9
20260507051409 36 281 1.7 2.6 0.00 0.00 0.00 79 1014.9
20260507051332 36 281 1.7 2.6 0.00 0.00 0.00 78 1014.9
20260507051208 36 281 1.7 2.6 0.00 0.00 0.00 79 1015.0
20260507051116 36 280 1.7 1.7 0.00 0.00 0.00 79 1014.9
20260507051020 36 280 1.7 1.7 0.00 0.00 0.00 79 1014.9
20260507050924 36 280 1.7 1.7 0.00 0.00 0.00 78 1015.0
20260507050808 36 280 1.7 1.7 0.00 0.00 0.00 78 1015.0
20260507050733 36 280 1.7 1.7 0.00 0.00 0.00 78 1015.0
20260507050609 36 280 0.9 1.7 0.00 0.00 0.00 77 1015.0
20260507050533 36 280 0.9 1.7 0.00 0.00 0.00 78 1015.0
20260507050420 36 280 0.9 1.7 0.00 0.00 0.00 78 1015.0
20260507050323 36 280 0.9 1.7 0.00 0.00 0.00 79 1014.9
20260507050227 36 280 0.9 1.7 0.00 0.00 0.00 78 1015.0
20260507050130 36 280 0.9 1.7 0.00 0.00 0.00 78 1015.0
20260507050029 36 280 0.9 1.7 0.00 0.00 0.00 78 1014.9
20260507045907 36 280 1.7 1.7 0.00 0.00 0.00 78 1015.0
20260507045831 36 280 1.7 1.7 0.00 0.00 0.00 78 1015.0
20260507045719 36 280 1.7 1.7 0.00 0.00 0.00 77 1015.0
20260507045644 36 280 0.9 1.7 0.00 0.00 0.00 77 1015.0
20260507045508 36 280 0.9 1.7 0.00 0.00 0.00 77 1015.0
20260507045432 36 280 0.9 1.7 0.00 0.00 0.00 77 1014.9
20260507045308 36 280 1.7 2.6 0.00 0.00 0.00 77 1015.0
20260507045232 36 280 1.7 2.6 0.00 0.00 0.00 77 1015.0
20260507045115 36 280 0.9 2.6 0.00 0.00 0.00 77 1015.0
20260507045023 36 280 0.9 2.6 0.00 0.00 0.00 78 1015.0
20260507044927 36 280 0.9 2.6 0.00 0.00 0.00 77 1015.0
20260507044810 36 280 1.7 2.6 0.00 0.00 0.00 77 1015.0
20260507044714 36 280 1.7 2.6 0.00 0.00 0.00 77 1015.0
20260507044617 36 280 1.7 2.6 0.00 0.00 0.00 78 1015.1
20260507044521 36 280 1.7 2.6 0.00 0.00 0.00 78 1015.0
20260507044430 36 281 1.7 2.6 0.00 0.00 0.00 78 1015.1
20260507044314 36 281 1.7 2.6 0.00 0.00 0.00 78 1015.1
20260507044217 36 281 1.7 2.6 0.00 0.00 0.00 78 1015.1
20260507044122 36 281 1.7 2.6 0.00 0.00 0.00 78 1015.1
20260507044005 36 281 1.7 2.6 0.00 0.00 0.00 78 1015.2
20260507043911 36 281 1.7 2.6 0.00 0.00 0.00 77 1015.1
20260507043836 36 280 1.7 2.6 0.00 0.00 0.00 77 1015.1
20260507043743 36 281 0.9 2.6 0.00 0.00 0.00 76 1015.1
20260507043628 36 281 1.7 2.6 0.00 0.00 0.00 76 1015.1
20260507043530 36 280 1.7 2.6 0.00 0.00 0.00 76 1015.1
20260507043406 36 281 1.7 2.6 0.00 0.00 0.00 77 1015.1
20260507043311 36 281 1.7 2.6 0.00 0.00 0.00 77 1015.1
20260507043215 36 281 1.7 2.6 0.00 0.00 0.00 77 1015.1
20260507043118 36 280 1.7 2.6 0.00 0.00 0.00 76 1015.1
20260507043028 36 280 1.7 2.6 0.00 0.00 0.00 76 1015.1
20260507042952 36 281 1.7 2.6 0.00 0.00 0.00 76 1015.1
20260507042808 36 281 1.7 2.6 0.00 0.00 0.00 76 1015.2
20260507042733 37 281 1.7 2.6 0.00 0.00 0.00 76 1015.1
20260507042637 37 280 1.7 2.6 0.00 0.00 0.00 75 1015.1
20260507042519 37 281 1.7 2.6 0.00 0.00 0.00 75 1015.1
20260507042425 37 282 1.7 2.6 0.00 0.00 0.00 75 1015.1
20260507042313 37 282 1.7 2.6 0.00 0.00 0.00 75 1015.1
20260507042217 37 282 1.7 2.6 0.00 0.00 0.00 75 1015.1
20260507042122 37 283 1.7 2.6 0.00 0.00 0.00 75 1015.1
20260507042027 37 284 1.7 2.6 0.00 0.00 0.00 75 1015.1
20260507041952 37 284 1.7 2.6 0.00 0.00 0.00 75 1015.1
20260507041808 37 294 1.7 2.6 0.00 0.00 0.00 75 1015.1
20260507041717 37 294 1.7 2.6 0.00 0.00 0.00 74 1015.1
20260507041620 37 296 1.7 1.7 0.00 0.00 0.00 74 1015.1
20260507041525 37 296 0.9 1.7 0.00 0.00 0.00 74 1015.1
20260507041447 37 296 0.9 1.7 0.00 0.00 0.00 75 1015.1
20260507041309 37 296 0.9 1.7 0.00 0.00 0.00 74 1015.1
20260507041214 37 296 0.9 1.7 0.00 0.00 0.00 74 1015.1
20260507041119 37 296 0.9 1.7 0.00 0.00 0.00 73 1015.2
20260507041007 37 296 0.9 1.7 0.00 0.00 0.00 73 1015.2
20260507040911 37 296 0.9 1.7 0.00 0.00 0.00 73 1015.1
20260507040813 37 296 0.9 1.7 0.00 0.00 0.00 73 1015.1
20260507040717 37 296 0.9 1.7 0.00 0.00 0.00 73 1015.2
20260507040641 38 296 0.9 1.7 0.00 0.00 0.00 73 1015.1
20260507040523 38 296 1.7 1.7 0.00 0.00 0.00 73 1015.1
20260507040412 38 296 1.7 1.7 0.00 0.00 0.00 73 1015.1
20260507040317 38 296 0.9 1.7 0.00 0.00 0.00 73 1015.2
20260507040220 38 296 0.9 1.7 0.00 0.00 0.00 73 1015.2
20260507040144 38 296 0.9 1.7 0.00 0.00 0.00 73 1015.2
20260507040007 38 296 0.9 1.7 0.00 0.00 0.00 73 1015.2
20260507035912 38 296 0.9 1.7 0.00 0.00 0.00 73 1015.2
20260507035816 38 296 0.0 1.7 0.00 0.00 0.00 73 1015.2
20260507035725 38 296 0.0 1.7 0.00 0.00 0.00 73 1015.2
20260507035629 38 296 0.0 1.7 0.00 0.00 0.00 73 1015.2
20260507035534 38 296 0.0 1.7 0.00 0.00 0.00 73 1015.2
20260507035416 38 296 0.0 1.7 0.00 0.00 0.00 71 1015.2
20260507035322 38 296 0.0 1.7 0.00 0.00 0.00 70 1015.2
20260507035245 38 296 0.0 1.7 0.00 0.00 0.00 70 1015.2
20260507035109 38 296 0.0 1.7 0.00 0.00 0.00 71 1015.2
20260507035018 38 296 0.9 1.7 0.00 0.00 0.00 71 1015.2
20260507034922 38 296 0.9 1.7 0.00 0.00 0.00 72 1015.2
20260507034807 38 296 0.9 1.7 0.00 0.00 0.00 73 1015.3
20260507034711 38 296 0.9 1.7 0.00 0.00 0.00 73 1015.3
20260507034616 38 296 0.9 1.7 0.00 0.00 0.00 73 1015.3
20260507034520 38 296 0.9 1.7 0.00 0.00 0.00 72 1015.3
20260507034429 38 296 0.9 1.7 0.00 0.00 0.00 72 1015.3
20260507034305 38 296 0.9 1.7 0.00 0.00 0.00 71 1015.3
20260507034210 38 296 0.9 0.9 0.00 0.00 0.00 71 1015.3
20260507034135 38 296 0.9 0.9 0.00 0.00 0.00 71 1015.2
20260507034020 38 296 0.9 0.9 0.00 0.00 0.00 71 1015.3
20260507033923 38 296 0.0 1.7 0.00 0.00 0.00 69 1015.3
20260507033812 38 296 0.0 1.7 0.00 0.00 0.00 69 1015.3
20260507033716 39 296 0.0 1.7 0.00 0.00 0.00 69 1015.2
20260507033620 39 296 0.9 1.7 0.00 0.00 0.00 69 1015.3
20260507033505 39 296 0.9 1.7 0.00 0.00 0.00 70 1015.2
20260507033430 39 296 0.9 1.7 0.00 0.00 0.00 70 1015.4
20260507033313 39 296 0.9 1.7 0.00 0.00 0.00 71 1015.3
20260507033238 39 296 0.9 1.7 0.00 0.00 0.00 71 1015.3
20260507033145 39 296 0.9 1.7 0.00 0.00 0.00 71 1015.3
20260507033009 39 296 0.9 1.7 0.00 0.00 0.00 70 1015.4
20260507032913 39 296 0.9 1.7 0.00 0.00 0.00 70 1015.3
20260507032837 39 296 1.7 1.7 0.00 0.00 0.00 69 1015.3
20260507032721 39 296 1.7 1.7 0.00 0.00 0.00 69 1015.3
20260507032605 39 296 1.7 1.7 0.00 0.00 0.00 68 1015.3
20260507032513 39 296 1.7 1.7 0.00 0.00 0.00 68 1015.3
20260507032418 39 296 1.7 1.7 0.00 0.00 0.00 67 1015.4
20260507032344 40 296 1.7 1.7 0.00 0.00 0.00 67 1015.3
20260507032227 40 296 1.7 1.7 0.00 0.00 0.00 66 1015.3
20260507032111 40 296 1.7 1.7 0.00 0.00 0.00 66 1015.3
20260507032015 40 296 1.7 1.7 0.00 0.00 0.00 66 1015.3
20260507031937 40 296 1.7 1.7 0.00 0.00 0.00 65 1015.2
20260507031805 40 296 0.9 1.7 0.00 0.00 0.00 65 1015.2
20260507031729 40 296 0.9 1.7 0.00 0.00 0.00 65 1015.2
20260507031606 41 296 0.0 0.0 0.00 0.00 0.00 65 1015.1
20260507031530 41 296 0.0 0.0 0.00 0.00 0.00 64 1015.2
20260507031414 41 296 0.0 0.0 0.00 0.00 0.00 62 1015.1
20260507031318 41 296 0.0 1.7 0.00 0.00 0.00 62 1015.1
20260507031220 41 296 0.0 1.7 0.00 0.00 0.00 62 1015.1
20260507031129 41 296 0.0 1.7 0.00 0.00 0.00 62 1015.2
20260507031005 41 296 0.0 1.7 0.00 0.00 0.00 62 1015.2
20260507030910 41 296 0.0 1.7 0.00 0.00 0.00 63 1015.2
20260507030814 41 296 0.0 1.7 0.00 0.00 0.00 63 1015.3
20260507030737 41 296 0.0 1.7 0.00 0.00 0.00 64 1015.3
20260507030620 41 296 0.0 1.7 0.00 0.00 0.00 65 1015.3
20260507030507 41 296 0.9 2.6 0.00 0.00 0.00 66 1015.4
20260507030430 41 296 0.9 2.6 0.00 0.00 0.00 66 1015.4
20260507030352 41 296 0.9 2.6 0.00 0.00 0.00 66 1015.4
20260507030207 41 296 0.9 2.6 0.00 0.00 0.00 66 1015.4
20260507030132 41 296 0.9 2.6 0.00 0.00 0.00 66 1015.4
20260507030034 41 296 0.9 2.6 0.00 0.00 0.00 66 1015.5
20260507025937 41 296 0.9 2.6 0.00 0.00 0.00 66 1015.4
20260507025840 41 296 1.7 2.6 0.00 0.00 0.00 66 1015.5
20260507025723 41 296 1.7 2.6 0.00 0.00 0.00 66 1015.5
20260507025611 41 296 1.7 2.6 0.00 0.00 0.00 66 1015.5
20260507025535 41 296 1.7 2.6 0.00 0.00 0.00 65 1015.5
20260507025417 41 297 1.7 2.6 0.00 0.00 0.00 65 1015.4
20260507025320 41 306 1.7 2.6 0.00 0.00 0.00 65 1015.5
20260507025224 41 306 1.7 2.6 0.00 0.00 0.00 65 1015.4
20260507025128 42 306 1.7 2.6 0.00 0.00 0.00 65 1015.5
20260507025011 42 306 1.7 2.6 0.00 0.00 0.00 64 1015.5
20260507024920 42 306 1.7 2.6 0.00 0.00 0.00 65 1015.5
20260507024824 42 306 1.7 2.6 0.00 0.00 0.00 63 1015.5
20260507024729 42 306 1.7 2.6 0.00 0.00 0.00 63 1015.4
20260507024630 42 306 1.7 2.6 0.00 0.00 0.00 64 1015.4
20260507024507 42 306 1.7 2.6 0.00 0.00 0.00 64 1015.4
20260507024412 42 306 1.7 2.6 0.00 0.00 0.00 63 1015.4
20260507024321 42 306 1.7 2.6 0.00 0.00 0.00 62 1015.4
20260507024224 42 306 0.9 2.6 0.00 0.00 0.00 61 1015.4
20260507024129 42 306 1.7 2.6 0.00 0.00 0.00 61 1015.4
20260507024005 42 306 1.7 3.5 0.00 0.00 0.00 60 1015.4
20260507023910 43 306 1.7 3.5 0.00 0.00 0.00 60 1015.3
20260507023813 43 306 1.7 3.5 0.00 0.00 0.00 59 1015.4
20260507023722 43 306 1.7 4.3 0.00 0.00 0.00 59 1015.4
20260507023627 43 306 1.7 4.3 0.00 0.00 0.00 59 1015.4
20260507023511 43 307 1.7 4.3 0.00 0.00 0.00 58 1015.4
20260507023416 43 316 1.7 4.3 0.00 0.00 0.00 57 1015.4
20260507023318 43 316 2.6 4.3 0.00 0.00 0.00 57 1015.4
20260507023223 43 315 1.7 4.3 0.00 0.00 0.00 57 1015.5
20260507023109 43 355 2.6 4.3 0.00 0.00 0.00 57 1015.5
20260507023015 43 355 3.5 4.3 0.00 0.00 0.00 57 1015.4
20260507022939 43 355 2.6 4.3 0.00 0.00 0.00 57 1015.4
20260507022823 43 350 1.7 4.3 0.00 0.00 0.00 57 1015.4
20260507022707 43 348 1.7 4.3 0.00 0.00 0.00 57 1015.5
20260507022631 43 355 1.7 4.3 0.00 0.00 0.00 57 1015.5
20260507022508 43 325 1.7 5.2 0.00 0.00 0.00 56 1015.5
20260507022416 43 347 1.7 5.2 0.00 0.00 0.00 56 1015.4
20260507022318 43 338 1.7 7.0 0.00 0.00 0.00 57 1015.4
20260507022222 43 329 2.6 7.0 0.00 0.00 0.00 57 1015.4
20260507022128 43 312 3.5 7.0 0.00 0.00 0.00 56 1015.5
20260507022010 43 312 3.5 7.0 0.00 0.00 0.00 57 1015.5
20260507021914 43 309 3.5 7.0 0.00 0.00 0.00 57 1015.5
20260507021818 43 339 3.5 7.0 0.00 0.00 0.00 56 1015.5
20260507021707 43 324 3.5 7.0 0.00 0.00 0.00 56 1015.5
20260507021631 43 331 3.5 7.0 0.00 0.00 0.00 56 1015.4
20260507021508 43 288 3.5 7.0 0.00 0.00 0.00 57 1015.5
20260507021434 43 300 2.6 5.2 0.00 0.00 0.00 57 1015.5
20260507021316 43 323 1.7 5.2 0.00 0.00 0.00 57 1015.6
20260507021239 43 329 2.6 5.2 0.00 0.00 0.00 57 1015.5
20260507021106 43 302 3.5 5.2 0.00 0.00 0.00 57 1015.5
20260507021030 43 338 2.6 5.2 0.00 0.00 0.00 57 1015.5
20260507020908 43 319 1.7 5.2 0.00 0.00 0.00 57 1015.5
20260507020832 43 305 2.6 5.2 0.00 0.00 0.00 57 1015.5
20260507020734 43 317 1.7 5.2 0.00 0.00 0.00 57 1015.4
20260507020618 43 313 1.7 5.2 0.00 0.00 0.00 58 1015.5
20260507020519 43 311 1.7 5.2 0.00 0.00 0.00 57 1015.6
20260507020408 43 294 2.6 5.2 0.00 0.00 0.00 57 1015.5
20260507020332 43 355 3.5 5.2 0.00 0.00 0.00 56 1015.5
20260507020208 43 297 2.6 7.0 0.00 0.00 0.00 57 1015.5
20260507020113 43 299 1.7 7.0 0.00 0.00 0.00 57 1015.5
20260507020018 43 299 2.6 7.0 0.00 0.00 0.00 57 1015.5
20260507015921 43 298 2.6 7.8 0.00 0.00 0.00 56 1015.4
20260507015810 43 300 2.6 7.8 0.00 0.00 0.00 56 1015.4
20260507015715 43 317 2.6 10.4 0.00 0.00 0.00 56 1015.4
20260507015619 43 302 3.5 10.4 0.00 0.00 0.00 55 1015.3
20260507015544 44 293 4.3 10.4 0.00 0.00 0.00 55 1015.4
20260507015426 43 296 4.3 10.4 0.00 0.00 0.00 56 1015.4
20260507015350 44 319 4.3 10.4 0.00 0.00 0.00 56 1015.4
20260507015252 43 309 4.3 10.4 0.00 0.00 0.00 56 1015.4
20260507015108 43 300 5.2 10.4 0.00 0.00 0.00 55 1015.4
20260507015016 44 298 6.1 10.4 0.00 0.00 0.00 56 1015.3
20260507014921 44 309 6.1 10.4 0.00 0.00 0.00 55 1015.4
20260507014805 44 302 4.3 9.6 0.00 0.00 0.00 56 1015.4
20260507014710 44 308 3.5 9.6 0.00 0.00 0.00 55 1015.4
20260507014613 44 319 4.3 9.6 0.00 0.00 0.00 55 1015.3
20260507014518 44 322 4.3 9.6 0.00 0.00 0.00 55 1015.3
20260507014406 44 290 4.3 9.6 0.00 0.00 0.00 55 1015.3
20260507014330 44 305 4.3 9.6 0.00 0.00 0.00 55 1015.3
20260507014208 44 350 4.3 9.6 0.00 0.00 0.00 56 1015.3
20260507014110 44 307 5.2 9.6 0.00 0.00 0.00 56 1015.4
20260507014015 44 293 5.2 9.6 0.00 0.00 0.00 55 1015.4
20260507013919 44 297 4.3 9.6 0.00 0.00 0.00 56 1015.4
20260507013806 44 329 4.3 9.6 0.00 0.00 0.00 54 1015.3
20260507013730 44 355 4.3 9.6 0.00 0.00 0.00 54 1015.3
20260507013608 44 321 4.3 9.6 0.00 0.00 0.00 55 1015.4
20260507013531 44 290 5.2 9.6 0.00 0.00 0.00 55 1015.3
20260507013433 44 318 5.2 9.6 0.00 0.00 0.00 54 1015.4
20260507013337 44 348 4.3 7.8 0.00 0.00 0.00 54 1015.3
20260507013240 44 306 4.3 7.8 0.00 0.00 0.00 55 1015.4
20260507013143 44 320 4.3 7.8 0.00 0.00 0.00 55 1015.3
20260507013011 44 298 3.5 7.8 0.00 0.00 0.00 54 1015.3
20260507012915 44 309 2.6 7.8 0.00 0.00 0.00 55 1015.3
20260507012840 44 360 3.5 7.8 0.00 0.00 0.00 54 1015.3
20260507012721 44 313 3.5 7.8 0.00 0.00 0.00 54 1015.3
20260507012626 44 319 3.5 9.6 0.00 0.00 0.00 55 1015.3
20260507012509 44 333 2.6 9.6 0.00 0.00 0.00 55 1015.3
20260507012414 44 318 2.6 9.6 0.00 0.00 0.00 55 1015.4
20260507012316 44 325 4.3 9.6 0.00 0.00 0.00 54 1015.3
20260507012241 44 303 5.2 9.6 0.00 0.00 0.00 54 1015.4
20260507012105 44 304 5.2 9.6 0.00 0.00 0.00 54 1015.3
20260507012029 44 306 5.2 9.6 0.00 0.00 0.00 54 1015.4
20260507011906 44 294 4.3 9.6 0.00 0.00 0.00 54 1015.3
20260507011810 44 312 2.6 7.8 0.00 0.00 0.00 54 1015.3
20260507011715 44 335 3.5 7.8 0.00 0.00 0.00 54 1015.4
20260507011624 44 336 3.5 7.8 0.00 0.00 0.00 54 1015.3
20260507011549 44 336 3.5 7.8 0.00 0.00 0.00 54 1015.3
20260507011452 44 306 3.5 7.8 0.00 0.00 0.00 54 1015.3
20260507011308 44 321 4.3 7.8 0.00 0.00 0.00 54 1015.4
20260507011213 44 325 4.3 7.8 0.00 0.00 0.00 53 1015.5
20260507011134 44 321 4.3 7.8 0.00 0.00 0.00 53 1015.3
20260507011008 44 306 3.5 5.2 0.00 0.00 0.00 54 1015.3
20260507010917 44 319 2.6 5.2 0.00 0.00 0.00 54 1015.4
20260507010822 44 350 3.5 5.2 0.00 0.00 0.00 54 1015.4
20260507010727 44 317 3.5 5.2 0.00 0.00 0.00 54 1015.3
20260507010610 44 308 3.5 5.2 0.00 0.00 0.00 54 1015.3
20260507010515 44 319 3.5 5.2 0.00 0.00 0.00 53 1015.4
20260507010437 44 293 2.6 5.2 0.00 0.00 0.00 54 1015.4
20260507010321 44 305 2.6 5.2 0.00 0.00 0.00 54 1015.4
20260507010208 44 321 3.5 5.2 0.00 0.00 0.00 54 1015.3
20260507010113 44 292 2.6 5.2 0.00 0.00 0.00 54 1015.4
20260507010017 44 329 2.6 5.2 0.00 0.00 0.00 54 1015.3
20260507005920 44 344 2.6 5.2 0.00 0.00 0.00 55 1015.4
20260507005824 44 348 2.6 7.0 0.00 0.00 0.00 54 1015.4
20260507005728 44 318 2.6 7.0 0.00 0.00 0.00 54 1015.4
20260507005616 44 311 1.7 7.0 0.00 0.00 0.00 54 1015.4
20260507005520 44 295 1.7 7.0 0.00 0.00 0.00 55 1015.4
20260507005424 44 355 1.7 7.0 0.00 0.00 0.00 54 1015.4
20260507005328 44 321 3.5 7.0 0.00 0.00 0.00 53 1015.4
20260507005211 44 307 3.5 7.0 0.00 0.00 0.00 54 1015.5
20260507005135 44 360 3.5 7.0 0.00 0.00 0.00 54 1015.4
20260507005037 44 312 3.5 7.0 0.00 0.00 0.00 54 1015.5
20260507004920 44 315 2.6 7.0 0.00 0.00 0.00 53 1015.4
20260507004828 44 313 3.5 7.0 0.00 0.00 0.00 53 1015.4
20260507004705 44 355 3.5 7.0 0.00 0.00 0.00 54 1015.4
20260507004608 44 343 2.6 8.7 0.00 0.00 0.00 53 1015.4
20260507004512 44 329 3.5 8.7 0.00 0.00 0.00 53 1015.4
20260507004416 44 351 3.5 8.7 0.00 0.00 0.00 53 1015.4
20260507004305 44 335 4.3 9.6 0.00 0.00 0.00 53 1015.4
20260507004229 44 350 4.3 9.6 0.00 0.00 0.00 54 1015.4
20260507004106 44 334 3.5 9.6 0.00 0.00 0.00 53 1015.3
20260507004030 44 339 4.3 9.6 0.00 0.00 0.00 53 1015.4
20260507003913 44 338 6.1 9.6 0.00 0.00 0.00 54 1015.4
20260507003816 44 349 5.2 9.6 0.00 0.00 0.00 53 1015.4
20260507003720 44 327 4.3 9.6 0.00 0.00 0.00 54 1015.4
20260507003628 44 5 6.1 9.6 0.00 0.00 0.00 53 1015.4
20260507003511 44 316 5.2 9.6 0.00 0.00 0.00 53 1015.4
20260507003415 44 342 4.3 9.6 0.00 0.00 0.00 52 1015.5
20260507003316 44 336 4.3 9.6 0.00 0.00 0.00 52 1015.5
20260507003237 44 350 4.3 9.6 0.00 0.00 0.00 53 1015.4
20260507003140 44 334 5.2 9.6 0.00 0.00 0.00 53 1015.4
20260507003023 44 316 6.1 9.6 0.00 0.00 0.00 53 1015.4
20260507002910 44 339 5.2 9.6 0.00 0.00 0.00 52 1015.5
20260507002812 44 330 5.2 9.6 0.00 0.00 0.00 52 1015.5
20260507002713 44 349 7.0 9.6 0.00 0.00 0.00 52 1015.5
20260507002614 44 355 6.1 9.6 0.00 0.00 0.00 52 1015.6
20260507002514 44 355 5.2 8.7 0.00 0.00 0.00 53 1015.5
20260507002418 44 355 5.2 7.8 0.00 0.00 0.00 52 1015.5
20260507002319 44 309 5.2 8.7 0.00 0.00 0.00 52 1015.6
20260507002224 44 346 4.3 8.7 0.00 0.00 0.00 53 1015.6
20260507002109 44 330 4.3 8.7 0.00 0.00 0.00 52 1015.5
20260507002009 44 336 4.3 8.7 0.00 0.00 0.00 52 1015.6
20260507001910 44 355 4.3 9.6 0.00 0.00 0.00 53 1015.6
20260507001813 44 343 4.3 9.6 0.00 0.00 0.00 53 1015.6
20260507001716 44 360 3.5 9.6 0.00 0.00 0.00 53 1015.7
20260507001624 44 333 5.2 9.6 0.00 0.00 0.00 53 1015.6
20260507001528 44 355 6.1 9.6 0.00 0.00 0.00 53 1015.7
20260507001406 45 319 4.3 9.6 0.00 0.00 0.00 53 1015.7
20260507001331 44 355 4.3 9.6 0.00 0.00 0.00 53 1015.6
20260507001207 44 302 6.1 9.6 0.00 0.00 0.00 53 1015.7
20260507001111 45 355 5.2 9.6 0.00 0.00 0.00 54 1015.8
20260507001039 44 346 3.5 7.8 0.00 0.00 0.00 54 1015.7
20260507000922 44 13 2.6 7.8 0.00 0.00 0.00 54 1015.8
20260507000807 44 309 3.5 7.8 0.00 0.00 0.00 55 1015.8
20260507000730 44 5 3.5 7.8 0.00 0.00 0.00 54 1015.8
20260507000606 44 345 3.5 7.8 0.00 0.00 0.00 54 1015.8
20260507000509 44 5 2.6 7.8 0.00 0.00 0.00 54 1015.7
20260507000413 44 306 2.6 7.8 0.00 0.00 0.00 54 1015.8
20260507000320 44 329 3.5 7.8 0.00 0.00 0.00 55 1015.8
20260507000221 44 325 3.5 7.8 0.00 0.00 0.00 53 1015.8
20260507000123 44 296 4.3 7.8 0.00 0.00 0.00 53 1015.7
20260507000026 44 344 2.6 7.8 0.00 0.00 0.00 54 1015.7
20260506235930 44 351 2.6 7.0 0.00 0.00 0.00 54 1015.8
20260506235812 44 360 2.6 7.8 0.00 0.00 0.00 53 1015.7
20260506235735 44 336 2.6 7.8 0.00 0.00 0.00 53 1015.8
20260506235620 44 341 3.5 7.8 0.00 0.00 0.00 53 1015.8
20260506235543 44 5 2.6 7.8 0.00 0.00 0.00 53 1015.8
20260506235406 44 322 2.6 7.8 0.00 0.00 0.00 54 1015.7
20260506235308 44 15 3.5 7.8 0.00 0.00 0.00 54 1015.8
20260506235211 44 15 4.3 8.7 0.00 0.00 0.00 53 1015.8
20260506235134 44 309 5.2 8.7 0.00 0.00 0.00 53 1015.8
20260506235016 44 348 5.2 8.7 0.00 0.00 0.00 53 1015.8
20260506234940 44 313 5.2 8.7 0.00 0.00 0.00 53 1015.8
20260506234808 44 328 4.3 8.7 0.00 0.00 0.00 53 1015.8
20260506234731 44 333 3.5 8.7 0.00 0.00 0.00 53 1015.7
20260506234607 44 320 3.5 8.7 0.00 0.00 0.00 54 1015.8
20260506234509 44 344 5.2 8.7 0.00 0.00 0.00 53 1015.7
20260506234434 44 348 5.2 8.7 0.00 0.00 0.00 53 1015.7
20260506234315 44 351 5.2 8.7 0.00 0.00 0.00 53 1015.8
20260506234223 44 12 5.2 9.6 0.00 0.00 0.00 53 1015.7
20260506234127 44 355 4.3 9.6 0.00 0.00 0.00 53 1015.7
20260506234009 44 14 3.5 9.6 0.00 0.00 0.00 53 1015.8
20260506233912 45 325 4.3 9.6 0.00 0.00 0.00 53 1015.9
20260506233816 45 313 5.2 9.6 0.00 0.00 0.00 53 1015.8
20260506233718 45 346 5.2 9.6 0.00 0.00 0.00 52 1015.8
20260506233605 45 5 6.1 11.3 0.00 0.00 0.00 53 1015.9
20260506233508 45 9 6.1 11.3 0.00 0.00 0.00 52 1015.9
20260506233431 45 294 6.1 11.3 0.00 0.00 0.00 52 1015.9
20260506233308 45 360 5.2 11.3 0.00 0.00 0.00 53 1015.8
20260506233210 45 342 5.2 11.3 0.00 0.00 0.00 53 1015.9
20260506233134 45 328 5.2 11.3 0.00 0.00 0.00 53 1015.9
20260506233037 45 333 4.3 11.3 0.00 0.00 0.00 53 1015.9
20260506232919 45 5 5.2 11.3 0.00 0.00 0.00 54 1016.0
20260506232805 45 313 7.8 11.3 0.00 0.00 0.00 52 1015.9
20260506232728 45 312 7.8 11.3 0.00 0.00 0.00 52 1015.9
20260506232652 45 347 6.1 11.3 0.00 0.00 0.00 53 1015.9
20260506232507 45 360 4.3 8.7 0.00 0.00 0.00 52 1015.8
20260506232432 45 5 5.2 8.7 0.00 0.00 0.00 53 1015.8
20260506232313 45 345 6.1 8.7 0.00 0.00 0.00 53 1015.9
20260506232217 45 322 4.3 10.4 0.00 0.00 0.00 53 1015.9
20260506232124 45 360 2.6 10.4 0.00 0.00 0.00 53 1015.9
20260506232049 45 11 3.5 11.3 0.00 0.00 0.00 52 1015.9
20260506231906 45 340 4.3 11.3 0.00 0.00 0.00 53 1015.9
20260506231829 45 349 4.3 11.3 0.00 0.00 0.00 52 1015.8
20260506231711 45 312 5.2 11.3 0.00 0.00 0.00 52 1015.9
20260506231615 45 329 6.1 11.3 0.00 0.00 0.00 52 1015.9
20260506231519 45 341 7.0 11.3 0.00 0.00 0.00 52 1015.8
20260506231408 45 341 7.8 11.3 0.00 0.00 0.00 52 1015.9
20260506231311 45 334 7.8 11.3 0.00 0.00 0.00 52 1015.8
20260506231215 45 348 7.0 11.3 0.00 0.00 0.00 52 1015.8
20260506231120 45 331 7.0 11.3 0.00 0.00 0.00 52 1015.8
20260506231005 45 273 6.1 11.3 0.00 0.00 0.00 52 1015.8
20260506230914 45 327 4.3 10.4 0.00 0.00 0.00 53 1015.9
20260506230818 45 355 3.5 10.4 0.00 0.00 0.00 53 1015.8
20260506230722 45 341 5.2 10.4 0.00 0.00 0.00 53 1015.9
20260506230626 45 333 5.2 10.4 0.00 0.00 0.00 52 1015.9
20260506230549 45 340 7.0 10.4 0.00 0.00 0.00 52 1015.8
20260506230406 45 328 7.8 12.2 0.00 0.00 0.00 52 1015.8
20260506230330 45 329 7.0 12.2 0.00 0.00 0.00 52 1015.8
20260506230234 45 345 5.2 13.0 0.00 0.00 0.00 53 1015.8
20260506230120 45 341 4.3 13.0 0.00 0.00 0.00 54 1015.9
20260506230005 45 317 4.3 13.0 0.00 0.00 0.00 53 1015.8
20260506225929 45 325 5.2 13.0 0.00 0.00 0.00 53 1015.9
20260506225805 45 327 6.1 13.0 0.00 0.00 0.00 53 1015.8
20260506225709 45 12 6.1 13.0 0.00 0.00 0.00 53 1015.8
20260506225614 45 5 8.7 13.0 0.00 0.00 0.00 53 1015.8
20260506225541 45 322 8.7 13.0 0.00 0.00 0.00 53 1015.8
20260506225405 45 327 7.0 13.0 0.00 0.00 0.00 53 1015.8
20260506225310 45 304 6.1 11.3 0.00 0.00 0.00 53 1015.9
20260506225214 45 346 7.0 11.3 0.00 0.00 0.00 52 1015.9
20260506225117 45 5 6.1 11.3 0.00 0.00 0.00 53 1015.9
20260506225042 45 5 6.1 11.3 0.00 0.00 0.00 53 1015.9
20260506224908 45 311 7.8 11.3 0.00 0.00 0.00 52 1015.9
20260506224831 45 315 7.0 11.3 0.00 0.00 0.00 53 1015.9
20260506224735 45 329 5.2 11.3 0.00 0.00 0.00 52 1015.9
20260506224616 45 308 6.1 11.3 0.00 0.00 0.00 53 1015.9
20260506224521 45 345 7.0 11.3 0.00 0.00 0.00 52 1016.0
20260506224445 45 345 7.0 11.3 0.00 0.00 0.00 52 1016.0
20260506224309 45 347 5.2 11.3 0.00 0.00 0.00 53 1016.0
20260506224214 45 355 4.3 9.6 0.00 0.00 0.00 53 1015.9
20260506224122 45 5 4.3 9.6 0.00 0.00 0.00 53 1016.0
20260506224027 45 350 3.5 12.2 0.00 0.00 0.00 54 1016.1
20260506223908 45 334 4.3 12.2 0.00 0.00 0.00 54 1016.0
20260506223813 45 308 4.3 12.2 0.00 0.00 0.00 53 1016.0
20260506223717 45 355 4.3 12.2 0.00 0.00 0.00 53 1016.0
20260506223622 45 308 5.2 12.2 0.00 0.00 0.00 52 1016.1
20260506223526 45 360 7.0 12.2 0.00 0.00 0.00 52 1016.0
20260506223412 45 355 6.1 12.2 0.00 0.00 0.00 53 1016.1
20260506223317 45 5 6.1 12.2 0.00 0.00 0.00 53 1016.0
20260506223220 45 337 7.0 12.2 0.00 0.00 0.00 53 1016.0
20260506223125 45 316 7.0 11.3 0.00 0.00 0.00 53 1016.0
20260506223028 45 341 6.1 11.3 0.00 0.00 0.00 54 1016.0
20260506222906 45 329 2.6 10.4 0.00 0.00 0.00 54 1016.1
20260506222815 45 341 2.6 10.4 0.00 0.00 0.00 54 1016.0
20260506222720 45 355 2.6 10.4 0.00 0.00 0.00 54 1016.1
20260506222624 45 5 3.5 10.4 0.00 0.00 0.00 54 1016.1
20260506222508 45 34 6.1 10.4 0.00 0.00 0.00 53 1016.1
20260506222413 45 5 7.0 10.4 0.00 0.00 0.00 53 1016.2
20260506222316 45 328 7.0 10.4 0.00 0.00 0.00 54 1016.1
20260506222225 45 12 7.0 10.4 0.00 0.00 0.00 54 1016.2
20260506222108 45 303 6.1 10.4 0.00 0.00 0.00 53 1016.0
20260506222012 45 338 5.2 11.3 0.00 0.00 0.00 54 1016.1
20260506221917 45 296 6.1 11.3 0.00 0.00 0.00 54 1016.1
20260506221840 45 320 7.0 13.0 0.00 0.00 0.00 53 1016.1
20260506221724 45 360 5.2 13.0 0.00 0.00 0.00 54 1016.1
20260506221612 45 23 5.2 13.0 0.00 0.00 0.00 55 1016.2
20260506221517 45 342 5.2 13.0 0.00 0.00 0.00 54 1016.2
20260506221420 45 360 5.2 13.0 0.00 0.00 0.00 53 1016.1
20260506221324 44 5 6.1 13.0 0.00 0.00 0.00 53 1016.1
20260506221209 44 360 7.0 13.0 0.00 0.00 0.00 55 1016.1
20260506221133 44 329 8.7 13.0 0.00 0.00 0.00 53 1016.3
20260506221017 45 304 8.7 13.0 0.00 0.00 0.00 53 1016.2
20260506220905 45 339 7.0 13.0 0.00 0.00 0.00 54 1016.1
20260506220809 45 302 7.0 13.0 0.00 0.00 0.00 53 1016.2
20260506220732 45 317 7.8 13.0 0.00 0.00 0.00 53 1016.2
20260506220608 45 315 7.8 13.0 0.00 0.00 0.00 54 1016.2
20260506220513 45 321 5.2 9.6 0.00 0.00 0.00 55 1016.2
20260506220418 45 320 3.5 9.6 0.00 0.00 0.00 54 1016.2
20260506220306 45 296 4.3 9.6 0.00 0.00 0.00 53 1016.2
20260506220210 45 360 4.3 9.6 0.00 0.00 0.00 54 1016.2
20260506220112 45 306 3.5 9.6 0.00 0.00 0.00 56 1016.2
20260506220016 45 32 5.2 9.6 0.00 0.00 0.00 54 1016.2
20260506215940 45 15 7.0 9.6 0.00 0.00 0.00 54 1016.2
20260506215824 44 344 5.2 9.6 0.00 0.00 0.00 55 1016.3
20260506215711 44 26 3.5 8.7 0.00 0.00 0.00 56 1016.2
20260506215617 44 355 4.3 8.7 0.00 0.00 0.00 54 1016.3
20260506215521 44 348 4.3 8.7 0.00 0.00 0.00 54 1016.2
20260506215427 44 13 4.3 8.7 0.00 0.00 0.00 53 1016.3
20260506215351 44 5 6.1 8.7 0.00 0.00 0.00 54 1016.2
20260506215206 44 355 5.2 8.7 0.00 0.00 0.00 54 1016.2
20260506215114 44 349 4.3 8.7 0.00 0.00 0.00 55 1016.3
20260506215018 44 286 5.2 8.7 0.00 0.00 0.00 54 1016.3
20260506214922 44 25 4.3 9.6 0.00 0.00 0.00 55 1016.3
20260506214807 44 342 3.5 11.3 0.00 0.00 0.00 55 1016.2
20260506214732 44 315 3.5 11.3 0.00 0.00 0.00 55 1016.3
20260506214607 44 328 4.3 11.3 0.00 0.00 0.00 55 1016.2
20260506214515 44 287 5.2 11.3 0.00 0.00 0.00 55 1016.2
20260506214419 44 318 5.2 11.3 0.00 0.00 0.00 53 1016.2
20260506214323 44 360 6.1 11.3 0.00 0.00 0.00 54 1016.3
20260506214228 44 317 6.1 11.3 0.00 0.00 0.00 55 1016.3
20260506214130 44 306 6.1 11.3 0.00 0.00 0.00 54 1016.3
20260506214007 44 336 7.0 11.3 0.00 0.00 0.00 55 1016.3
20260506213932 44 340 7.8 11.3 0.00 0.00 0.00 54 1016.3
20260506213820 44 321 7.8 11.3 0.00 0.00 0.00 55 1016.2
20260506213705 44 355 7.8 11.3 0.00 0.00 0.00 54 1016.3
20260506213609 44 17 6.1 11.3 0.00 0.00 0.00 54 1016.4
20260506213533 44 349 2.6 11.3 0.00 0.00 0.00 55 1016.3
20260506213413 44 281 3.5 11.3 0.00 0.00 0.00 55 1016.3
20260506213318 44 346 7.0 11.3 0.00 0.00 0.00 54 1016.3
20260506213206 44 327 7.8 11.3 0.00 0.00 0.00 54 1016.3
20260506213129 44 290 6.1 10.4 0.00 0.00 0.00 55 1016.3
20260506213005 44 308 4.3 10.4 0.00 0.00 0.00 55 1016.3
20260506212930 44 279 4.3 11.3 0.00 0.00 0.00 55 1016.3
20260506212807 44 325 4.3 11.3 0.00 0.00 0.00 56 1016.3
20260506212711 44 304 4.3 11.3 0.00 0.00 0.00 56 1016.4
20260506212616 44 283 4.3 11.3 0.00 0.00 0.00 57 1016.4
20260506212524 44 355 3.5 11.3 0.00 0.00 0.00 57 1016.4
20260506212427 44 292 4.3 11.3 0.00 0.00 0.00 56 1016.4
20260506212351 44 323 4.3 11.3 0.00 0.00 0.00 56 1016.4
20260506212206 44 355 7.0 11.3 0.00 0.00 0.00 57 1016.4
20260506212110 44 292 7.8 11.3 0.00 0.00 0.00 55 1016.4
20260506212034 44 284 7.0 11.3 0.00 0.00 0.00 55 1016.3
20260506211917 44 325 6.1 11.3 0.00 0.00 0.00 57 1016.4
20260506211824 44 306 7.0 11.3 0.00 0.00 0.00 55 1016.4
20260506211728 44 315 7.0 11.3 0.00 0.00 0.00 55 1016.4
20260506211606 44 297 7.0 11.3 0.00 0.00 0.00 53 1016.4
20260506211528 44 306 7.0 11.3 0.00 0.00 0.00 53 1016.4
20260506211451 44 317 7.8 11.3 0.00 0.00 0.00 54 1016.4
20260506211307 44 342 7.8 11.3 0.00 0.00 0.00 55 1016.5
20260506211211 44 342 7.0 10.4 0.00 0.00 0.00 54 1016.4
20260506211139 44 342 7.0 10.4 0.00 0.00 0.00 54 1016.5